Time,TemperatureF,DewpointF,PressureIn,WindDirection,WindDirectionDegrees,WindSpeedMPH,WindSpeedGustMPH,Humidity,HourlyPrecipIn,Conditions,Clouds,dailyrainin,SoftwareType,DateUTC
2013-04-24 00:00:00,41.4,32.7,30.51,NNE,22,0.0,0.2,71,0.00,,---,0.00,VWS V14.01,2013-04-24 07:00:00,
2013-04-24 00:01:00,41.2,32.5,30.51,NNE,22,0.0,0.0,71,0.00,,---,0.00,VWS V14.01,2013-04-24 07:01:00,
2013-04-24 00:02:00,41.2,32.5,30.51,NNE,22,0.0,0.0,71,0.00,,---,0.00,VWS V14.01,2013-04-24 07:02:00,
2013-04-24 00:03:00,41.2,32.5,30.51,NNE,22,0.4,0.4,71,0.00,,---,0.00,VWS V14.01,2013-04-24 07:03:00,
2013-04-24 00:04:00,41.2,32.5,30.51,NNE,22,0.7,0.9,71,0.00,,---,0.00,VWS V14.01,2013-04-24 07:04:00,
2013-04-24 00:05:00,41.2,32.5,30.51,NNE,22,0.4,0.7,71,0.00,,---,0.00,VWS V14.01,2013-04-24 07:05:00,
2013-04-24 00:06:00,41.2,32.5,30.51,ESE,112,1.1,1.1,71,0.00,,---,0.00,VWS V14.01,2013-04-24 07:06:00,
2013-04-24 00:07:00,41.2,32.5,30.52,North,0,0.0,1.1,71,0.00,,---,0.00,VWS V14.01,2013-04-24 07:07:00,
2013-04-24 00:08:00,41.2,32.5,30.52,North,0,0.4,0.4,71,0.00,,---,0.00,VWS V14.01,2013-04-24 07:08:00,
2013-04-24 00:09:00,41.2,32.5,30.52,ESE,112,0.4,0.7,71,0.00,,---,0.00,VWS V14.01,2013-04-24 07:09:00,
2013-04-24 00:10:00,41.2,32.5,30.52,NE,45,1.1,1.1,71,0.00,,---,0.00,VWS V14.01,2013-04-24 07:10:00,
2013-04-24 00:11:00,41.2,32.5,30.52,North,0,0.7,0.7,71,0.00,,---,0.00,VWS V14.01,2013-04-24 07:11:00,
2013-04-24 00:12:00,41.2,32.5,30.52,NNE,22,0.4,0.7,71,0.00,,---,0.00,VWS V14.01,2013-04-24 07:12:00,
2013-04-24 00:13:00,41.0,32.3,30.52,SE,135,0.4,1.1,71,0.00,,---,0.00,VWS V14.01,2013-04-24 07:13:00,
2013-04-24 00:14:00,41.0,32.3,30.52,NNE,22,3.4,3.4,71,0.00,,---,0.00,VWS V14.01,2013-04-24 07:14:00,
2013-04-24 00:15:00,41.0,32.7,30.52,ENE,68,0.7,3.4,72,0.00,,---,0.00,VWS V14.01,2013-04-24 07:15:00,
2013-04-24 00:16:00,41.0,32.7,30.52,ESE,112,1.1,1.1,72,0.00,,---,0.00,VWS V14.01,2013-04-24 07:16:00,
2013-04-24 00:17:00,41.2,32.9,30.52,NE,45,0.7,1.1,72,0.00,,---,0.00,VWS V14.01,2013-04-24 07:17:00,
2013-04-24 00:18:00,41.2,32.5,30.52,ESE,112,0.7,0.7,71,0.00,,---,0.00,VWS V14.01,2013-04-24 07:18:00,
2013-04-24 00:19:00,41.2,32.9,30.52,SE,135,0.0,0.7,72,0.00,,---,0.00,VWS V14.01,2013-04-24 07:19:00,
2013-04-24 00:20:00,41.2,32.9,30.52,SE,135,0.0,0.0,72,0.00,,---,0.00,VWS V14.01,2013-04-24 07:20:00,
2013-04-24 00:21:00,41.4,33.1,30.52,SE,135,0.0,0.0,72,0.00,,---,0.00,VWS V14.01,2013-04-24 07:21:00,
2013-04-24 00:22:00,41.4,33.1,30.52,SE,135,0.0,0.0,72,0.00,,---,0.00,VWS V14.01,2013-04-24 07:22:00,
2013-04-24 00:23:00,41.4,33.1,30.52,SE,135,0.0,0.0,72,0.00,,---,0.00,VWS V14.01,2013-04-24 07:23:00,
2013-04-24 00:24:00,41.4,33.1,30.52,SE,135,0.0,0.0,72,0.00,,---,0.00,VWS V14.01,2013-04-24 07:24:00,
2013-04-24 00:25:00,41.4,32.7,30.52,SE,135,0.0,0.0,71,0.00,,---,0.00,VWS V14.01,2013-04-24 07:25:00,
2013-04-24 00:26:00,41.4,33.1,30.52,SE,135,0.0,0.0,72,0.00,,---,0.00,VWS V14.01,2013-04-24 07:26:00,
2013-04-24 00:27:00,41.4,33.1,30.52,ENE,68,0.4,0.4,72,0.00,,---,0.00,VWS V14.01,2013-04-24 07:27:00,
2013-04-24 00:28:00,41.4,33.1,30.52,ENE,68,0.0,0.4,72,0.00,,---,0.00,VWS V14.01,2013-04-24 07:28:00,
2013-04-24 00:29:00,41.4,32.7,30.52,ENE,68,0.0,0.0,71,0.00,,---,0.00,VWS V14.01,2013-04-24 07:29:00,
2013-04-24 00:30:00,41.4,32.7,30.52,ENE,68,0.0,0.0,71,0.00,,---,0.00,VWS V14.01,2013-04-24 07:30:00,
2013-04-24 00:31:00,41.2,32.9,30.52,ENE,68,0.0,0.0,72,0.00,,---,0.00,VWS V14.01,2013-04-24 07:31:00,
2013-04-24 00:32:00,41.2,32.9,30.52,NE,45,0.0,0.0,72,0.00,,---,0.00,VWS V14.01,2013-04-24 07:32:00,
2013-04-24 00:33:00,41.2,32.9,30.52,NE,45,0.0,0.0,72,0.00,,---,0.00,VWS V14.01,2013-04-24 07:33:00,
2013-04-24 00:34:00,41.2,32.9,30.52,NE,45,0.0,0.0,72,0.00,,---,0.00,VWS V14.01,2013-04-24 07:34:00,
2013-04-24 00:35:00,41.2,32.9,30.52,South,180,0.2,0.2,72,0.00,,---,0.00,VWS V14.01,2013-04-24 07:35:00,
2013-04-24 00:36:00,41.2,32.9,30.52,South,180,0.0,0.0,72,0.00,,---,0.00,VWS V14.01,2013-04-24 07:36:00,
2013-04-24 00:37:00,41.2,32.9,30.52,South,180,0.0,0.0,72,0.00,,---,0.00,VWS V14.01,2013-04-24 07:37:00,
2013-04-24 00:38:00,41.0,32.7,30.52,South,180,0.0,0.0,72,0.00,,---,0.00,VWS V14.01,2013-04-24 07:38:00,
2013-04-24 00:39:00,41.0,32.7,30.52,South,180,0.0,0.0,72,0.00,,---,0.00,VWS V14.01,2013-04-24 07:39:00,
2013-04-24 00:40:00,41.0,32.7,30.52,South,180,0.0,0.2,72,0.00,,---,0.00,VWS V14.01,2013-04-24 07:40:00,
2013-04-24 00:41:00,41.0,32.7,30.52,South,180,0.0,0.0,72,0.00,,---,0.00,VWS V14.01,2013-04-24 07:41:00,
2013-04-24 00:42:00,41.0,32.7,30.52,South,180,0.0,0.0,72,0.00,,---,0.00,VWS V14.01,2013-04-24 07:42:00,
2013-04-24 00:43:00,41.0,32.7,30.52,South,180,0.0,0.0,72,0.00,,---,0.00,VWS V14.01,2013-04-24 07:43:00,
2013-04-24 00:44:00,41.0,32.7,30.53,South,180,0.2,0.2,72,0.00,,---,0.00,VWS V14.01,2013-04-24 07:44:00,
2013-04-24 00:45:00,41.0,32.7,30.52,South,180,0.0,0.2,72,0.00,,---,0.00,VWS V14.01,2013-04-24 07:45:00,
2013-04-24 00:46:00,41.0,32.7,30.52,South,180,0.0,0.0,72,0.00,,---,0.00,VWS V14.01,2013-04-24 07:46:00,
2013-04-24 00:47:00,41.0,32.7,30.53,South,180,0.0,0.0,72,0.00,,---,0.00,VWS V14.01,2013-04-24 07:47:00,
2013-04-24 00:48:00,41.0,32.7,30.52,South,180,0.0,0.0,72,0.00,,---,0.00,VWS V14.01,2013-04-24 07:48:00,
2013-04-24 00:49:00,41.0,32.7,30.53,South,180,0.0,0.0,72,0.00,,---,0.00,VWS V14.01,2013-04-24 07:49:00,
2013-04-24 00:50:00,41.0,32.7,30.53,South,180,0.0,0.0,72,0.00,,---,0.00,VWS V14.01,2013-04-24 07:50:00,
2013-04-24 00:51:00,41.0,32.7,30.53,South,180,0.0,0.0,72,0.00,,---,0.00,VWS V14.01,2013-04-24 07:51:00,
2013-04-24 00:52:00,41.0,32.7,30.53,South,180,0.0,0.0,72,0.00,,---,0.00,VWS V14.01,2013-04-24 07:52:00,
2013-04-24 00:53:00,40.9,32.6,30.53,South,180,0.0,0.0,72,0.00,,---,0.00,VWS V14.01,2013-04-24 07:53:00,
2013-04-24 00:54:00,40.9,32.6,30.53,South,180,0.0,0.0,72,0.00,,---,0.00,VWS V14.01,2013-04-24 07:54:00,
2013-04-24 00:55:00,40.9,32.6,30.53,South,180,0.0,0.0,72,0.00,,---,0.00,VWS V14.01,2013-04-24 07:55:00,
2013-04-24 00:56:00,40.9,32.9,30.53,South,180,0.0,0.0,73,0.00,,---,0.00,VWS V14.01,2013-04-24 07:56:00,
2013-04-24 00:57:00,40.9,32.9,30.53,South,180,0.0,0.0,73,0.00,,---,0.00,VWS V14.01,2013-04-24 07:57:00,
2013-04-24 00:58:00,40.9,32.9,30.53,South,180,0.0,0.0,73,0.00,,---,0.00,VWS V14.01,2013-04-24 07:58:00,
2013-04-24 00:59:00,40.9,32.9,30.53,South,180,0.0,0.0,73,0.00,,---,0.00,VWS V14.01,2013-04-24 07:59:00,
2013-04-24 01:00:00,40.7,32.7,30.53,South,180,0.0,0.0,73,0.00,,---,0.00,VWS V14.01,2013-04-24 08:00:00,
2013-04-24 01:01:00,40.7,32.7,30.53,South,180,0.0,0.0,73,0.00,,---,0.00,VWS V14.01,2013-04-24 08:01:00,
2013-04-24 01:02:00,40.7,32.7,30.53,South,180,0.0,0.0,73,0.00,,---,0.00,VWS V14.01,2013-04-24 08:02:00,
2013-04-24 01:03:00,40.7,32.7,30.53,South,180,0.0,0.0,73,0.00,,---,0.00,VWS V14.01,2013-04-24 08:03:00,
2013-04-24 01:04:00,40.7,32.7,30.53,South,180,0.0,0.0,73,0.00,,---,0.00,VWS V14.01,2013-04-24 08:04:00,
2013-04-24 01:05:00,40.7,32.7,30.53,South,180,0.0,0.0,73,0.00,,---,0.00,VWS V14.01,2013-04-24 08:05:00,
2013-04-24 01:06:00,40.7,32.7,30.53,South,180,0.0,0.0,73,0.00,,---,0.00,VWS V14.01,2013-04-24 08:06:00,
2013-04-24 01:07:00,40.7,32.7,30.53,South,180,0.2,0.2,73,0.00,,---,0.00,VWS V14.01,2013-04-24 08:07:00,
2013-04-24 01:08:00,40.7,32.7,30.53,South,180,0.2,0.2,73,0.00,,---,0.00,VWS V14.01,2013-04-24 08:08:00,
2013-04-24 01:09:00,40.7,32.7,30.53,South,180,0.0,0.2,73,0.00,,---,0.00,VWS V14.01,2013-04-24 08:09:00,
2013-04-24 01:10:00,40.5,32.5,30.53,South,180,0.0,0.0,73,0.00,,---,0.00,VWS V14.01,2013-04-24 08:10:00,
2013-04-24 01:11:00,40.5,32.5,30.53,South,180,0.0,0.0,73,0.00,,---,0.00,VWS V14.01,2013-04-24 08:11:00,
2013-04-24 01:12:00,40.5,32.5,30.53,South,180,0.0,0.0,73,0.00,,---,0.00,VWS V14.01,2013-04-24 08:12:00,
2013-04-24 01:13:00,40.5,32.5,30.53,South,180,0.4,0.4,73,0.00,,---,0.00,VWS V14.01,2013-04-24 08:13:00,
2013-04-24 01:14:00,40.5,32.5,30.53,South,180,0.0,0.4,73,0.00,,---,0.00,VWS V14.01,2013-04-24 08:14:00,
2013-04-24 01:15:00,40.3,32.3,30.53,South,180,0.0,0.0,73,0.00,,---,0.00,VWS V14.01,2013-04-24 08:15:00,
2013-04-24 01:16:00,40.3,32.3,30.53,South,180,0.0,0.0,73,0.00,,---,0.00,VWS V14.01,2013-04-24 08:16:00,
2013-04-24 01:17:00,40.3,32.3,30.53,South,180,0.0,0.0,73,0.00,,---,0.00,VWS V14.01,2013-04-24 08:17:00,
2013-04-24 01:18:00,40.3,32.7,30.53,South,180,0.0,0.0,74,0.00,,---,0.00,VWS V14.01,2013-04-24 08:18:00,
2013-04-24 01:19:00,40.3,32.7,30.53,South,180,0.0,0.0,74,0.00,,---,0.00,VWS V14.01,2013-04-24 08:19:00,
2013-04-24 01:20:00,40.3,32.7,30.53,South,180,0.0,0.0,74,0.00,,---,0.00,VWS V14.01,2013-04-24 08:20:00,
2013-04-24 01:21:00,40.3,32.3,30.53,South,180,0.0,0.0,73,0.00,,---,0.00,VWS V14.01,2013-04-24 08:21:00,
2013-04-24 01:22:00,40.1,32.5,30.53,South,180,0.0,0.0,74,0.00,,---,0.00,VWS V14.01,2013-04-24 08:22:00,
2013-04-24 01:23:00,40.1,32.5,30.53,South,180,0.0,0.0,74,0.00,,---,0.00,VWS V14.01,2013-04-24 08:23:00,
2013-04-24 01:24:00,40.1,32.5,30.53,South,180,0.0,0.0,74,0.00,,---,0.00,VWS V14.01,2013-04-24 08:24:00,
2013-04-24 01:25:00,40.1,32.5,30.53,South,180,0.0,0.0,74,0.00,,---,0.00,VWS V14.01,2013-04-24 08:25:00,
2013-04-24 01:26:00,40.1,32.5,30.53,South,180,0.0,0.0,74,0.00,,---,0.00,VWS V14.01,2013-04-24 08:26:00,
2013-04-24 01:27:00,40.1,32.5,30.53,South,180,0.0,0.0,74,0.00,,---,0.00,VWS V14.01,2013-04-24 08:27:00,
2013-04-24 01:28:00,40.1,32.5,30.53,South,180,0.0,0.0,74,0.00,,---,0.00,VWS V14.01,2013-04-24 08:28:00,
2013-04-24 01:29:00,40.0,32.4,30.53,South,180,0.0,0.0,74,0.00,,---,0.00,VWS V14.01,2013-04-24 08:29:00,
2013-04-24 01:30:00,40.0,32.4,30.53,South,180,0.4,0.9,74,0.00,,---,0.00,VWS V14.01,2013-04-24 08:30:00,
2013-04-24 01:31:00,40.0,32.4,30.53,South,180,0.4,0.9,74,0.00,,---,0.00,VWS V14.01,2013-04-24 08:31:00,
2013-04-24 01:32:00,40.0,32.4,30.53,South,180,0.2,0.4,74,0.00,,---,0.00,VWS V14.01,2013-04-24 08:32:00,
2013-04-24 01:33:00,40.0,32.4,30.53,South,180,1.1,1.1,74,0.00,,---,0.00,VWS V14.01,2013-04-24 08:33:00,
2013-04-24 01:34:00,39.8,32.2,30.53,South,180,0.9,1.1,74,0.00,,---,0.00,VWS V14.01,2013-04-24 08:34:00,
2013-04-24 01:35:00,39.8,32.2,30.53,South,180,0.7,0.9,74,0.00,,---,0.00,VWS V14.01,2013-04-24 08:35:00,
2013-04-24 01:36:00,39.8,32.2,30.53,South,180,0.7,0.9,74,0.00,,---,0.00,VWS V14.01,2013-04-24 08:36:00,
2013-04-24 01:37:00,39.8,32.2,30.53,South,180,0.0,0.7,74,0.00,,---,0.00,VWS V14.01,2013-04-24 08:37:00,
2013-04-24 01:38:00,39.8,32.2,30.53,ENE,68,0.4,0.4,74,0.00,,---,0.00,VWS V14.01,2013-04-24 08:38:00,
2013-04-24 01:39:00,39.8,32.2,30.53,NE,45,1.1,1.3,74,0.00,,---,0.00,VWS V14.01,2013-04-24 08:39:00,
2013-04-24 01:40:00,39.6,32.0,30.53,ENE,68,0.0,0.2,74,0.00,,---,0.00,VWS V14.01,2013-04-24 08:40:00,
2013-04-24 01:41:00,39.6,32.0,30.53,ENE,68,0.0,0.2,74,0.00,,---,0.00,VWS V14.01,2013-04-24 08:41:00,
2013-04-24 01:42:00,39.6,32.0,30.53,East,90,0.2,0.2,74,0.00,,---,0.00,VWS V14.01,2013-04-24 08:42:00,
2013-04-24 01:43:00,39.6,32.0,30.53,ESE,112,0.7,0.7,74,0.00,,---,0.00,VWS V14.01,2013-04-24 08:43:00,
2013-04-24 01:44:00,39.6,32.0,30.53,ESE,112,0.7,0.7,74,0.00,,---,0.00,VWS V14.01,2013-04-24 08:44:00,
2013-04-24 01:45:00,39.6,32.0,30.53,ENE,68,0.4,0.4,74,0.00,,---,0.00,VWS V14.01,2013-04-24 08:45:00,
2013-04-24 01:46:00,39.6,32.0,30.53,ENE,68,0.4,0.4,74,0.00,,---,0.00,VWS V14.01,2013-04-24 08:46:00,
2013-04-24 01:47:00,39.6,32.0,30.53,ENE,68,0.2,0.4,74,0.00,,---,0.00,VWS V14.01,2013-04-24 08:47:00,
2013-04-24 01:48:00,39.6,32.0,30.53,ENE,68,0.4,0.4,74,0.00,,---,0.00,VWS V14.01,2013-04-24 08:48:00,
2013-04-24 01:49:00,39.6,32.0,30.53,ENE,68,0.4,0.4,74,0.00,,---,0.00,VWS V14.01,2013-04-24 08:49:00,
2013-04-24 01:50:00,39.4,31.8,30.53,ENE,68,0.4,0.4,74,0.00,,---,0.00,VWS V14.01,2013-04-24 08:50:00,
2013-04-24 01:51:00,39.4,31.8,30.53,ENE,68,0.4,0.4,74,0.00,,---,0.00,VWS V14.01,2013-04-24 08:51:00,
2013-04-24 01:52:00,39.4,32.2,30.53,North,0,0.4,0.4,75,0.00,,---,0.00,VWS V14.01,2013-04-24 08:52:00,
2013-04-24 01:53:00,39.2,32.0,30.53,NNE,22,1.1,1.1,75,0.00,,---,0.00,VWS V14.01,2013-04-24 08:53:00,
2013-04-24 01:54:00,39.2,32.0,30.53,NE,45,0.7,1.1,75,0.00,,---,0.00,VWS V14.01,2013-04-24 08:54:00,
2013-04-24 01:55:00,39.2,32.0,30.53,NE,45,0.0,0.2,75,0.00,,---,0.00,VWS V14.01,2013-04-24 08:55:00,
2013-04-24 01:56:00,39.2,32.0,30.53,NE,45,0.0,0.2,75,0.00,,---,0.00,VWS V14.01,2013-04-24 08:56:00,
2013-04-24 01:57:00,39.2,32.0,30.53,NE,45,0.0,0.0,75,0.00,,---,0.00,VWS V14.01,2013-04-24 08:57:00,
2013-04-24 01:58:00,39.2,32.0,30.53,NE,45,0.0,0.0,75,0.00,,---,0.00,VWS V14.01,2013-04-24 08:58:00,
2013-04-24 01:59:00,39.2,32.0,30.53,NE,45,0.0,0.0,75,0.00,,---,0.00,VWS V14.01,2013-04-24 08:59:00,
2013-04-24 02:00:00,39.2,32.0,30.53,NE,45,0.0,0.0,75,0.00,,---,0.00,VWS V14.01,2013-04-24 09:00:00,
2013-04-24 02:01:00,39.2,32.0,30.53,NE,45,0.0,0.0,75,0.00,,---,0.00,VWS V14.01,2013-04-24 09:01:00,
2013-04-24 02:02:00,39.1,31.9,30.53,NE,45,0.0,0.0,75,0.00,,---,0.00,VWS V14.01,2013-04-24 09:02:00,
2013-04-24 02:03:00,39.1,31.9,30.53,NE,45,0.0,0.0,75,0.00,,---,0.00,VWS V14.01,2013-04-24 09:03:00,
2013-04-24 02:04:00,39.1,31.9,30.53,NE,45,0.0,0.0,75,0.00,,---,0.00,VWS V14.01,2013-04-24 09:04:00,
2013-04-24 02:05:00,38.9,31.7,30.53,NE,45,0.4,0.4,75,0.00,,---,0.00,VWS V14.01,2013-04-24 09:05:00,
2013-04-24 02:06:00,38.9,31.7,30.53,NE,45,0.4,0.4,75,0.00,,---,0.00,VWS V14.01,2013-04-24 09:06:00,
2013-04-24 02:07:00,38.9,31.7,30.53,NE,45,0.4,0.4,75,0.00,,---,0.00,VWS V14.01,2013-04-24 09:07:00,
2013-04-24 02:08:00,38.9,32.0,30.53,NE,45,0.4,0.4,76,0.00,,---,0.00,VWS V14.01,2013-04-24 09:08:00,
2013-04-24 02:09:00,38.9,32.0,30.53,NNE,22,0.7,0.7,76,0.00,,---,0.00,VWS V14.01,2013-04-24 09:09:00,
2013-04-24 02:10:00,38.7,31.8,30.53,NE,45,0.9,0.9,76,0.00,,---,0.00,VWS V14.01,2013-04-24 09:10:00,
2013-04-24 02:11:00,38.7,31.5,30.53,NE,45,0.9,0.9,75,0.00,,---,0.00,VWS V14.01,2013-04-24 09:11:00,
2013-04-24 02:12:00,38.7,31.8,30.53,NE,45,0.0,0.9,76,0.00,,---,0.00,VWS V14.01,2013-04-24 09:12:00,
2013-04-24 02:13:00,38.7,31.8,30.53,NE,45,0.0,0.0,76,0.00,,---,0.00,VWS V14.01,2013-04-24 09:13:00,
2013-04-24 02:14:00,38.7,31.8,30.53,NE,45,0.2,0.2,76,0.00,,---,0.00,VWS V14.01,2013-04-24 09:14:00,
2013-04-24 02:15:00,38.7,31.8,30.53,NE,45,0.0,0.0,76,0.00,,---,0.00,VWS V14.01,2013-04-24 09:15:00,
2013-04-24 02:16:00,38.7,31.8,30.53,NE,45,0.0,0.0,76,0.00,,---,0.00,VWS V14.01,2013-04-24 09:16:00,
2013-04-24 02:17:00,38.7,31.8,30.53,NE,45,0.0,0.0,76,0.00,,---,0.00,VWS V14.01,2013-04-24 09:17:00,
2013-04-24 02:18:00,38.5,31.6,30.53,NE,45,0.0,0.0,76,0.00,,---,0.00,VWS V14.01,2013-04-24 09:18:00,
2013-04-24 02:19:00,38.5,31.6,30.53,NE,45,0.0,0.0,76,0.00,,---,0.00,VWS V14.01,2013-04-24 09:19:00,
2013-04-24 02:20:00,38.5,31.6,30.53,North,0,0.4,0.4,76,0.00,,---,0.00,VWS V14.01,2013-04-24 09:20:00,
2013-04-24 02:21:00,38.5,31.6,30.53,North,0,0.4,0.4,76,0.00,,---,0.00,VWS V14.01,2013-04-24 09:21:00,
2013-04-24 02:22:00,38.5,31.9,30.53,NNE,22,0.4,0.4,77,0.00,,---,0.00,VWS V14.01,2013-04-24 09:22:00,
2013-04-24 02:23:00,38.5,31.6,30.53,NNE,22,1.1,1.1,76,0.00,,---,0.00,VWS V14.01,2013-04-24 09:23:00,
2013-04-24 02:24:00,38.5,31.6,30.53,NNE,22,0.4,1.1,76,0.00,,---,0.00,VWS V14.01,2013-04-24 09:24:00,
2013-04-24 02:25:00,38.5,31.6,30.53,NE,45,0.7,0.7,76,0.00,,---,0.00,VWS V14.01,2013-04-24 09:25:00,
2013-04-24 02:26:00,38.5,31.6,30.53,NE,45,1.1,1.1,76,0.00,,---,0.00,VWS V14.01,2013-04-24 09:26:00,
2013-04-24 02:27:00,38.5,31.6,30.53,ENE,68,0.7,1.1,76,0.00,,---,0.00,VWS V14.01,2013-04-24 09:27:00,
2013-04-24 02:28:00,38.5,31.6,30.53,NE,45,1.1,1.1,76,0.00,,---,0.00,VWS V14.01,2013-04-24 09:28:00,
2013-04-24 02:29:00,38.5,31.6,30.53,NE,45,0.9,1.1,76,0.00,,---,0.00,VWS V14.01,2013-04-24 09:29:00,
2013-04-24 02:30:00,38.5,31.6,30.53,NE,45,0.7,0.7,76,0.00,,---,0.00,VWS V14.01,2013-04-24 09:30:00,
2013-04-24 02:31:00,38.5,31.9,30.53,NE,45,0.7,0.7,77,0.00,,---,0.00,VWS V14.01,2013-04-24 09:31:00,
2013-04-24 02:32:00,38.5,31.6,30.53,NE,45,0.0,0.7,76,0.00,,---,0.00,VWS V14.01,2013-04-24 09:32:00,
2013-04-24 02:33:00,38.5,31.9,30.53,ENE,68,0.0,0.0,77,0.00,,---,0.00,VWS V14.01,2013-04-24 09:33:00,
2013-04-24 02:34:00,38.5,31.6,30.53,ENE,68,0.0,0.0,76,0.00,,---,0.00,VWS V14.01,2013-04-24 09:34:00,
2013-04-24 02:35:00,38.5,31.9,30.53,ENE,68,0.0,0.0,77,0.00,,---,0.00,VWS V14.01,2013-04-24 09:35:00,
2013-04-24 02:36:00,38.5,31.9,30.53,ENE,68,0.0,0.0,77,0.00,,---,0.00,VWS V14.01,2013-04-24 09:36:00,
2013-04-24 02:37:00,38.5,31.9,30.53,ENE,68,0.0,0.0,77,0.00,,---,0.00,VWS V14.01,2013-04-24 09:37:00,
2013-04-24 02:38:00,38.3,31.7,30.53,ENE,68,0.0,0.0,77,0.00,,---,0.00,VWS V14.01,2013-04-24 09:38:00,
2013-04-24 02:39:00,38.5,31.9,30.53,ENE,68,0.0,0.0,77,0.00,,---,0.00,VWS V14.01,2013-04-24 09:39:00,
2013-04-24 02:40:00,38.3,31.7,30.53,NNE,22,0.4,0.4,77,0.00,,---,0.00,VWS V14.01,2013-04-24 09:40:00,
2013-04-24 02:41:00,38.3,31.7,30.53,NNE,22,0.0,0.4,77,0.00,,---,0.00,VWS V14.01,2013-04-24 09:41:00,
2013-04-24 02:42:00,38.3,31.7,30.53,NNE,22,0.4,0.4,77,0.00,,---,0.00,VWS V14.01,2013-04-24 09:42:00,
2013-04-24 02:43:00,38.3,31.7,30.53,NNE,22,0.2,0.4,77,0.00,,---,0.00,VWS V14.01,2013-04-24 09:43:00,
2013-04-24 02:44:00,38.3,31.7,30.53,NNE,22,0.0,0.2,77,0.00,,---,0.00,VWS V14.01,2013-04-24 09:44:00,
2013-04-24 02:45:00,38.3,31.7,30.53,NNE,22,0.2,0.2,77,0.00,,---,0.00,VWS V14.01,2013-04-24 09:45:00,
2013-04-24 02:46:00,38.3,31.7,30.53,NNE,22,0.4,0.4,77,0.00,,---,0.00,VWS V14.01,2013-04-24 09:46:00,
2013-04-24 02:47:00,38.3,31.7,30.53,NNE,22,0.4,0.4,77,0.00,,---,0.00,VWS V14.01,2013-04-24 09:47:00,
2013-04-24 02:48:00,38.3,31.7,30.53,NNE,22,0.4,0.4,77,0.00,,---,0.00,VWS V14.01,2013-04-24 09:48:00,
2013-04-24 02:49:00,38.2,31.6,30.53,NNE,22,0.4,0.4,77,0.00,,---,0.00,VWS V14.01,2013-04-24 09:49:00,
2013-04-24 02:50:00,38.2,31.3,30.53,NNE,22,0.0,0.4,76,0.00,,---,0.00,VWS V14.01,2013-04-24 09:50:00,
2013-04-24 02:51:00,38.2,31.3,30.53,NNE,22,0.2,0.4,76,0.00,,---,0.00,VWS V14.01,2013-04-24 09:51:00,
2013-04-24 02:52:00,38.2,31.3,30.53,NNE,22,0.4,0.4,76,0.00,,---,0.00,VWS V14.01,2013-04-24 09:52:00,
2013-04-24 02:53:00,38.2,31.3,30.53,NE,45,0.7,0.7,76,0.00,,---,0.00,VWS V14.01,2013-04-24 09:53:00,
2013-04-24 02:54:00,38.2,31.3,30.53,ENE,68,0.2,0.7,76,0.00,,---,0.00,VWS V14.01,2013-04-24 09:54:00,
2013-04-24 02:55:00,38.2,31.3,30.53,ENE,68,0.2,0.2,76,0.00,,---,0.00,VWS V14.01,2013-04-24 09:55:00,
2013-04-24 02:56:00,38.2,31.3,30.53,ENE,68,0.2,0.2,76,0.00,,---,0.00,VWS V14.01,2013-04-24 09:56:00,
2013-04-24 02:57:00,38.2,31.3,30.53,North,0,0.9,0.9,76,0.00,,---,0.00,VWS V14.01,2013-04-24 09:57:00,
2013-04-24 02:58:00,38.2,31.3,30.53,East,90,0.4,0.9,76,0.00,,---,0.00,VWS V14.01,2013-04-24 09:58:00,
2013-04-24 02:59:00,38.2,31.3,30.53,ESE,112,0.9,0.9,76,0.00,,---,0.00,VWS V14.01,2013-04-24 09:59:00,
2013-04-24 03:00:00,38.2,31.3,30.53,East,90,0.9,0.9,76,0.00,,---,0.00,VWS V14.01,2013-04-24 10:00:00,
2013-04-24 03:01:00,38.2,31.3,30.53,East,90,0.9,0.9,76,0.00,,---,0.00,VWS V14.01,2013-04-24 10:01:00,
2013-04-24 03:02:00,38.2,31.3,30.53,East,90,0.9,0.9,76,0.00,,---,0.00,VWS V14.01,2013-04-24 10:02:00,
2013-04-24 03:03:00,38.2,31.3,30.53,East,90,0.9,1.1,76,0.00,,---,0.00,VWS V14.01,2013-04-24 10:03:00,
2013-04-24 03:04:00,38.2,31.3,30.53,East,90,0.9,0.9,76,0.00,,---,0.00,VWS V14.01,2013-04-24 10:04:00,
2013-04-24 03:05:00,38.2,31.3,30.53,NE,45,0.2,1.1,76,0.00,,---,0.00,VWS V14.01,2013-04-24 10:05:00,
2013-04-24 03:06:00,38.2,31.3,30.53,NE,45,0.2,1.1,76,0.00,,---,0.00,VWS V14.01,2013-04-24 10:06:00,
2013-04-24 03:07:00,38.2,31.6,30.53,NE,45,0.9,1.1,77,0.00,,---,0.00,VWS V14.01,2013-04-24 10:07:00,
2013-04-24 03:08:00,38.2,31.3,30.53,NE,45,0.9,0.9,76,0.00,,---,0.00,VWS V14.01,2013-04-24 10:08:00,
2013-04-24 03:09:00,38.2,31.3,30.53,ENE,68,0.7,1.1,76,0.00,,---,0.00,VWS V14.01,2013-04-24 10:09:00,
2013-04-24 03:10:00,38.2,31.6,30.53,ENE,68,0.0,0.0,77,0.00,,---,0.00,VWS V14.01,2013-04-24 10:10:00,
2013-04-24 03:11:00,38.3,31.4,30.53,East,90,0.7,0.7,76,0.00,,---,0.00,VWS V14.01,2013-04-24 10:11:00,
2013-04-24 03:12:00,38.3,31.4,30.53,East,90,0.4,0.9,76,0.00,,---,0.00,VWS V14.01,2013-04-24 10:12:00,
2013-04-24 03:13:00,38.3,31.7,30.53,East,90,0.4,0.4,77,0.00,,---,0.00,VWS V14.01,2013-04-24 10:13:00,
2013-04-24 03:14:00,38.3,31.7,30.53,East,90,0.4,0.4,77,0.00,,---,0.00,VWS V14.01,2013-04-24 10:14:00,
2013-04-24 03:15:00,38.3,31.7,30.53,East,90,0.0,0.0,77,0.00,,---,0.00,VWS V14.01,2013-04-24 10:15:00,
2013-04-24 03:16:00,38.3,31.7,30.53,East,90,0.0,0.0,77,0.00,,---,0.00,VWS V14.01,2013-04-24 10:16:00,
2013-04-24 03:17:00,38.3,31.7,30.53,East,90,0.0,0.0,77,0.00,,---,0.00,VWS V14.01,2013-04-24 10:17:00,
2013-04-24 03:18:00,38.3,31.7,30.53,East,90,0.0,0.0,77,0.00,,---,0.00,VWS V14.01,2013-04-24 10:18:00,
2013-04-24 03:19:00,38.3,31.7,30.53,East,90,0.0,0.0,77,0.00,,---,0.00,VWS V14.01,2013-04-24 10:19:00,
2013-04-24 03:20:00,38.3,31.7,30.53,East,90,0.0,0.0,77,0.00,,---,0.00,VWS V14.01,2013-04-24 10:20:00,
2013-04-24 03:21:00,38.3,31.7,30.53,East,90,0.0,0.0,77,0.00,,---,0.00,VWS V14.01,2013-04-24 10:21:00,
2013-04-24 03:22:00,38.3,31.7,30.53,East,90,0.0,0.0,77,0.00,,---,0.00,VWS V14.01,2013-04-24 10:22:00,
2013-04-24 03:23:00,38.3,31.7,30.53,ESE,112,0.0,0.0,77,0.00,,---,0.00,VWS V14.01,2013-04-24 10:23:00,
2013-04-24 03:24:00,38.3,31.7,30.53,SSE,158,0.0,0.0,77,0.00,,---,0.00,VWS V14.01,2013-04-24 10:24:00,
2013-04-24 03:25:00,38.3,31.7,30.53,SSE,158,0.4,0.4,77,0.00,,---,0.00,VWS V14.01,2013-04-24 10:25:00,
2013-04-24 03:26:00,38.3,31.7,30.53,SSE,158,0.4,0.4,77,0.00,,---,0.00,VWS V14.01,2013-04-24 10:26:00,
2013-04-24 03:27:00,38.2,31.6,30.53,SSE,158,0.2,0.4,77,0.00,,---,0.00,VWS V14.01,2013-04-24 10:27:00,
2013-04-24 03:28:00,38.2,31.6,30.53,SSE,158,0.0,0.2,77,0.00,,---,0.00,VWS V14.01,2013-04-24 10:28:00,
2013-04-24 03:29:00,38.2,31.6,30.53,SSE,158,0.0,0.0,77,0.00,,---,0.00,VWS V14.01,2013-04-24 10:29:00,
2013-04-24 03:30:00,38.2,31.6,30.53,SSE,158,0.0,0.0,77,0.00,,---,0.00,VWS V14.01,2013-04-24 10:30:00,
2013-04-24 03:31:00,38.2,31.6,30.53,SSE,158,0.0,0.0,77,0.00,,---,0.00,VWS V14.01,2013-04-24 10:31:00,
2013-04-24 03:32:00,38.2,31.6,30.53,ESE,112,0.0,0.0,77,0.00,,---,0.00,VWS V14.01,2013-04-24 10:32:00,
2013-04-24 03:33:00,38.2,31.6,30.53,ESE,112,0.0,0.0,77,0.00,,---,0.00,VWS V14.01,2013-04-24 10:33:00,
2013-04-24 03:34:00,38.2,31.6,30.53,ESE,112,0.0,0.0,77,0.00,,---,0.00,VWS V14.01,2013-04-24 10:34:00,
2013-04-24 03:35:00,38.2,31.6,30.53,ESE,112,0.0,0.0,77,0.00,,---,0.00,VWS V14.01,2013-04-24 10:35:00,
2013-04-24 03:36:00,38.2,31.6,30.53,ESE,112,0.0,0.0,77,0.00,,---,0.00,VWS V14.01,2013-04-24 10:36:00,
2013-04-24 03:37:00,38.2,31.6,30.53,ESE,112,0.0,0.0,77,0.00,,---,0.00,VWS V14.01,2013-04-24 10:37:00,
2013-04-24 03:38:00,38.2,31.6,30.53,ESE,112,0.0,0.0,77,0.00,,---,0.00,VWS V14.01,2013-04-24 10:38:00,
2013-04-24 03:39:00,38.2,31.6,30.53,East,90,0.0,0.0,77,0.00,,---,0.00,VWS V14.01,2013-04-24 10:39:00,
2013-04-24 03:40:00,38.0,31.4,30.53,NE,45,0.0,0.4,77,0.00,,---,0.00,VWS V14.01,2013-04-24 10:40:00,
2013-04-24 03:41:00,38.0,31.4,30.53,NE,45,0.0,0.4,77,0.00,,---,0.00,VWS V14.01,2013-04-24 10:41:00,
2013-04-24 03:42:00,38.0,31.4,30.53,NE,45,0.0,0.0,77,0.00,,---,0.00,VWS V14.01,2013-04-24 10:42:00,
2013-04-24 03:43:00,38.0,31.4,30.53,NE,45,0.0,0.0,77,0.00,,---,0.00,VWS V14.01,2013-04-24 10:43:00,
2013-04-24 03:44:00,38.0,31.4,30.53,NE,45,0.0,0.0,77,0.00,,---,0.00,VWS V14.01,2013-04-24 10:44:00,
2013-04-24 03:45:00,38.0,31.4,30.53,NE,45,0.0,0.0,77,0.00,,---,0.00,VWS V14.01,2013-04-24 10:45:00,
2013-04-24 03:46:00,38.0,31.4,30.53,NE,45,0.0,0.0,77,0.00,,---,0.00,VWS V14.01,2013-04-24 10:46:00,
2013-04-24 03:47:00,38.0,31.4,30.53,NE,45,0.0,0.0,77,0.00,,---,0.00,VWS V14.01,2013-04-24 10:47:00,
2013-04-24 03:48:00,37.8,31.2,30.53,NE,45,0.0,0.0,77,0.00,,---,0.00,VWS V14.01,2013-04-24 10:48:00,
2013-04-24 03:49:00,37.8,31.2,30.53,NE,45,0.0,0.0,77,0.00,,---,0.00,VWS V14.01,2013-04-24 10:49:00,
2013-04-24 03:50:00,37.8,31.2,30.53,NE,45,0.0,0.2,77,0.00,,---,0.00,VWS V14.01,2013-04-24 10:50:00,
2013-04-24 03:51:00,37.8,31.2,30.53,NE,45,0.0,0.2,77,0.00,,---,0.00,VWS V14.01,2013-04-24 10:51:00,
2013-04-24 03:52:00,37.8,31.2,30.53,NE,45,0.4,0.4,77,0.00,,---,0.00,VWS V14.01,2013-04-24 10:52:00,
2013-04-24 03:53:00,37.8,31.2,30.53,NE,45,0.0,0.4,77,0.00,,---,0.00,VWS V14.01,2013-04-24 10:53:00,
2013-04-24 03:54:00,37.8,31.2,30.53,NE,45,0.0,0.0,77,0.00,,---,0.00,VWS V14.01,2013-04-24 10:54:00,
2013-04-24 03:55:00,37.8,31.2,30.53,NNE,22,0.4,0.7,77,0.00,,---,0.00,VWS V14.01,2013-04-24 10:55:00,
2013-04-24 03:56:00,37.8,31.2,30.53,NNE,22,0.4,0.7,77,0.00,,---,0.00,VWS V14.01,2013-04-24 10:56:00,
2013-04-24 03:57:00,37.8,31.2,30.53,NNE,22,0.0,0.4,77,0.00,,---,0.00,VWS V14.01,2013-04-24 10:57:00,
2013-04-24 03:58:00,37.8,31.2,30.53,NE,45,0.7,0.7,77,0.00,,---,0.00,VWS V14.01,2013-04-24 10:58:00,
2013-04-24 03:59:00,37.8,31.2,30.53,NE,45,0.2,0.7,77,0.00,,---,0.00,VWS V14.01,2013-04-24 10:59:00,
2013-04-24 04:00:00,37.8,31.2,30.53,NE,45,0.0,0.0,77,0.00,,---,0.00,VWS V14.01,2013-04-24 11:00:00,
2013-04-24 04:01:00,37.8,31.2,30.53,NE,45,0.0,0.0,77,0.00,,---,0.00,VWS V14.01,2013-04-24 11:01:00,
2013-04-24 04:02:00,37.8,31.2,30.53,NNE,22,0.0,0.0,77,0.00,,---,0.00,VWS V14.01,2013-04-24 11:02:00,
2013-04-24 04:03:00,37.8,31.6,30.53,NNE,22,0.0,0.0,78,0.00,,---,0.00,VWS V14.01,2013-04-24 11:03:00,
2013-04-24 04:04:00,37.8,31.6,30.53,NNE,22,0.0,0.0,78,0.00,,---,0.00,VWS V14.01,2013-04-24 11:04:00,
2013-04-24 04:05:00,37.8,31.6,30.53,NNE,22,0.4,0.4,78,0.00,,---,0.00,VWS V14.01,2013-04-24 11:05:00,
2013-04-24 04:06:00,37.8,31.6,30.53,NNE,22,0.4,0.4,78,0.00,,---,0.00,VWS V14.01,2013-04-24 11:06:00,
2013-04-24 04:07:00,37.8,31.6,30.53,NNE,22,1.1,1.1,78,0.00,,---,0.00,VWS V14.01,2013-04-24 11:07:00,
2013-04-24 04:08:00,37.8,31.6,30.53,NE,45,0.0,1.1,78,0.00,,---,0.00,VWS V14.01,2013-04-24 11:08:00,
2013-04-24 04:09:00,37.8,31.6,30.53,NE,45,0.0,0.0,78,0.00,,---,0.00,VWS V14.01,2013-04-24 11:09:00,
2013-04-24 04:10:00,37.6,31.4,30.53,NNE,22,0.0,0.0,78,0.00,,---,0.00,VWS V14.01,2013-04-24 11:10:00,
2013-04-24 04:11:00,37.6,31.4,30.53,NNE,22,0.0,0.0,78,0.00,,---,0.00,VWS V14.01,2013-04-24 11:11:00,
2013-04-24 04:12:00,37.8,31.6,30.53,NNE,22,0.0,0.0,78,0.00,,---,0.00,VWS V14.01,2013-04-24 11:12:00,
2013-04-24 04:13:00,37.6,31.4,30.53,NNE,22,0.0,0.0,78,0.00,,---,0.00,VWS V14.01,2013-04-24 11:13:00,
2013-04-24 04:14:00,37.6,31.4,30.53,NE,45,0.0,0.0,78,0.00,,---,0.00,VWS V14.01,2013-04-24 11:14:00,
2013-04-24 04:15:00,37.6,31.4,30.53,NE,45,0.0,0.0,78,0.00,,---,0.00,VWS V14.01,2013-04-24 11:15:00,
2013-04-24 04:16:00,37.6,31.4,30.53,NE,45,0.0,0.0,78,0.00,,---,0.00,VWS V14.01,2013-04-24 11:16:00,
2013-04-24 04:17:00,37.6,31.4,30.53,NE,45,0.0,0.0,78,0.00,,---,0.00,VWS V14.01,2013-04-24 11:17:00,
2013-04-24 04:18:00,37.6,31.4,30.53,NE,45,0.0,0.0,78,0.00,,---,0.00,VWS V14.01,2013-04-24 11:18:00,
2013-04-24 04:19:00,37.6,31.4,30.53,NE,45,0.0,0.0,78,0.00,,---,0.00,VWS V14.01,2013-04-24 11:19:00,
2013-04-24 04:20:00,37.6,31.4,30.53,NNE,22,0.0,0.0,78,0.00,,---,0.00,VWS V14.01,2013-04-24 11:20:00,
2013-04-24 04:21:00,37.6,31.4,30.53,NNE,22,0.0,0.0,78,0.00,,---,0.00,VWS V14.01,2013-04-24 11:21:00,
2013-04-24 04:22:00,37.6,31.4,30.53,NNE,22,0.0,0.0,78,0.00,,---,0.00,VWS V14.01,2013-04-24 11:22:00,
2013-04-24 04:23:00,37.6,31.4,30.53,NNE,22,0.0,0.0,78,0.00,,---,0.00,VWS V14.01,2013-04-24 11:23:00,
2013-04-24 04:24:00,37.6,31.4,30.53,NNE,22,0.4,0.4,78,0.00,,---,0.00,VWS V14.01,2013-04-24 11:24:00,
2013-04-24 04:25:00,37.6,31.4,30.53,NNE,22,0.0,0.0,78,0.00,,---,0.00,VWS V14.01,2013-04-24 11:25:00,
2013-04-24 04:26:00,37.6,31.4,30.53,NE,45,0.0,0.0,78,0.00,,---,0.00,VWS V14.01,2013-04-24 11:26:00,
2013-04-24 04:27:00,37.6,31.4,30.53,ENE,68,0.0,0.0,78,0.00,,---,0.00,VWS V14.01,2013-04-24 11:27:00,
2013-04-24 04:28:00,37.6,31.4,30.53,ENE,68,0.0,0.0,78,0.00,,---,0.00,VWS V14.01,2013-04-24 11:28:00,
2013-04-24 04:29:00,37.6,31.4,30.53,ENE,68,0.0,0.0,78,0.00,,---,0.00,VWS V14.01,2013-04-24 11:29:00,
2013-04-24 04:30:00,37.6,31.4,30.53,ENE,68,0.4,0.4,78,0.00,,---,0.00,VWS V14.01,2013-04-24 11:30:00,
2013-04-24 04:31:00,37.6,31.4,30.53,ENE,68,0.7,0.7,78,0.00,,---,0.00,VWS V14.01,2013-04-24 11:31:00,
2013-04-24 04:32:00,37.6,31.4,30.53,ENE,68,0.7,0.7,78,0.00,,---,0.00,VWS V14.01,2013-04-24 11:32:00,
2013-04-24 04:33:00,37.6,31.4,30.53,ENE,68,0.4,0.7,78,0.00,,---,0.00,VWS V14.01,2013-04-24 11:33:00,
2013-04-24 04:34:00,37.6,31.4,30.53,ENE,68,0.4,0.7,78,0.00,,---,0.00,VWS V14.01,2013-04-24 11:34:00,
2013-04-24 04:35:00,37.6,31.7,30.53,ESE,112,0.4,0.4,79,0.00,,---,0.00,VWS V14.01,2013-04-24 11:35:00,
2013-04-24 04:36:00,37.6,31.7,30.53,ESE,112,0.4,0.4,79,0.00,,---,0.00,VWS V14.01,2013-04-24 11:36:00,
2013-04-24 04:37:00,37.6,31.7,30.53,ENE,68,0.7,0.7,79,0.00,,---,0.00,VWS V14.01,2013-04-24 11:37:00,
2013-04-24 04:38:00,37.6,31.7,30.53,ENE,68,0.9,0.9,79,0.00,,---,0.00,VWS V14.01,2013-04-24 11:38:00,
2013-04-24 04:39:00,37.6,31.7,30.53,NE,45,0.7,0.9,79,0.00,,---,0.00,VWS V14.01,2013-04-24 11:39:00,
2013-04-24 04:40:00,37.6,31.7,30.53,NE,45,1.3,1.3,79,0.00,,---,0.00,VWS V14.01,2013-04-24 11:40:00,
2013-04-24 04:41:00,37.6,31.7,30.53,NE,45,0.9,1.3,79,0.00,,---,0.00,VWS V14.01,2013-04-24 11:41:00,
2013-04-24 04:42:00,37.6,31.7,30.53,NNE,22,1.6,1.6,79,0.00,,---,0.00,VWS V14.01,2013-04-24 11:42:00,
2013-04-24 04:43:00,37.8,32.2,30.53,NNE,22,3.4,3.4,80,0.00,,---,0.00,VWS V14.01,2013-04-24 11:43:00,
2013-04-24 04:44:00,37.8,32.2,30.53,ENE,68,0.9,3.4,80,0.00,,---,0.00,VWS V14.01,2013-04-24 11:44:00,
2013-04-24 04:45:00,37.8,32.2,30.53,ENE,68,0.4,1.1,80,0.00,,---,0.00,VWS V14.01,2013-04-24 11:45:00,
2013-04-24 04:46:00,37.8,32.2,30.53,ENE,68,0.4,1.1,80,0.00,,---,0.00,VWS V14.01,2013-04-24 11:46:00,
2013-04-24 04:47:00,38.0,32.4,30.53,ESE,112,0.4,0.4,80,0.00,,---,0.00,VWS V14.01,2013-04-24 11:47:00,
2013-04-24 04:48:00,38.0,32.4,30.53,NE,45,0.9,0.9,80,0.00,,---,0.00,VWS V14.01,2013-04-24 11:48:00,
2013-04-24 04:49:00,38.0,32.4,30.53,ENE,68,0.4,0.9,80,0.00,,---,0.00,VWS V14.01,2013-04-24 11:49:00,
2013-04-24 04:50:00,38.0,32.4,30.53,SE,135,0.4,0.4,80,0.00,,---,0.00,VWS V14.01,2013-04-24 11:50:00,
2013-04-24 04:51:00,38.2,32.6,30.53,SE,135,0.2,0.4,80,0.00,,---,0.00,VWS V14.01,2013-04-24 11:51:00,
2013-04-24 04:52:00,38.2,32.3,30.53,SE,135,0.0,0.2,79,0.00,,---,0.00,VWS V14.01,2013-04-24 11:52:00,
2013-04-24 04:53:00,38.2,32.3,30.53,SE,135,0.0,0.0,79,0.00,,---,0.00,VWS V14.01,2013-04-24 11:53:00,
2013-04-24 04:54:00,38.2,32.3,30.53,SE,135,0.0,0.0,79,0.00,,---,0.00,VWS V14.01,2013-04-24 11:54:00,
2013-04-24 04:55:00,38.2,32.3,30.53,NNE,22,0.2,0.2,79,0.00,,---,0.00,VWS V14.01,2013-04-24 11:55:00,
2013-04-24 04:56:00,38.2,32.3,30.53,NNE,22,0.2,0.2,79,0.00,,---,0.00,VWS V14.01,2013-04-24 11:56:00,
2013-04-24 04:57:00,38.2,32.3,30.53,NNE,22,1.8,2.0,79,0.00,,---,0.00,VWS V14.01,2013-04-24 11:57:00,
2013-04-24 04:58:00,38.0,32.1,30.53,NNE,22,0.2,1.8,79,0.00,,---,0.00,VWS V14.01,2013-04-24 11:58:00,
2013-04-24 04:59:00,38.2,32.6,30.53,East,90,0.4,0.4,80,0.00,,---,0.00,VWS V14.01,2013-04-24 11:59:00,
2013-04-24 05:00:00,38.2,32.3,30.53,ESE,112,0.0,0.0,79,0.00,,---,0.00,VWS V14.01,2013-04-24 12:00:00,
2013-04-24 05:01:00,38.2,32.3,30.53,ESE,112,0.0,0.0,79,0.00,,---,0.00,VWS V14.01,2013-04-24 12:01:00,
2013-04-24 05:02:00,38.2,32.3,30.53,ENE,68,0.0,0.0,79,0.00,,---,0.00,VWS V14.01,2013-04-24 12:02:00,
2013-04-24 05:03:00,38.0,32.1,30.53,East,90,0.0,0.0,79,0.00,,---,0.00,VWS V14.01,2013-04-24 12:03:00,
2013-04-24 05:04:00,38.0,32.1,30.52,East,90,0.0,0.0,79,0.00,,---,0.00,VWS V14.01,2013-04-24 12:04:00,
2013-04-24 05:05:00,38.2,32.3,30.53,SSE,158,0.2,0.9,79,0.00,,---,0.00,VWS V14.01,2013-04-24 12:05:00,
2013-04-24 05:06:00,38.2,32.3,30.53,SSE,158,0.2,0.9,79,0.00,,---,0.00,VWS V14.01,2013-04-24 12:06:00,
2013-04-24 05:07:00,38.2,32.3,30.53,SE,135,0.0,0.2,79,0.00,,---,0.00,VWS V14.01,2013-04-24 12:07:00,
2013-04-24 05:08:00,38.2,32.3,30.53,SE,135,0.0,0.0,79,0.00,,---,0.00,VWS V14.01,2013-04-24 12:08:00,
2013-04-24 05:09:00,38.2,32.6,30.53,SE,135,0.0,0.0,80,0.00,,---,0.00,VWS V14.01,2013-04-24 12:09:00,
2013-04-24 05:10:00,38.2,32.3,30.53,ENE,68,0.0,0.4,79,0.00,,---,0.00,VWS V14.01,2013-04-24 12:10:00,
2013-04-24 05:11:00,38.2,32.3,30.53,East,90,0.0,0.4,79,0.00,,---,0.00,VWS V14.01,2013-04-24 12:11:00,
2013-04-24 05:12:00,38.2,32.3,30.53,East,90,0.0,0.0,79,0.00,,---,0.00,VWS V14.01,2013-04-24 12:12:00,
2013-04-24 05:13:00,38.2,32.3,30.53,ENE,68,0.0,0.0,79,0.00,,---,0.00,VWS V14.01,2013-04-24 12:13:00,
2013-04-24 05:14:00,38.2,32.3,30.53,ENE,68,0.0,0.0,79,0.00,,---,0.00,VWS V14.01,2013-04-24 12:14:00,
2013-04-24 05:15:00,38.2,32.3,30.53,East,90,0.0,0.0,79,0.00,,---,0.00,VWS V14.01,2013-04-24 12:15:00,
2013-04-24 05:16:00,38.2,32.3,30.53,East,90,0.0,0.0,79,0.00,,---,0.00,VWS V14.01,2013-04-24 12:16:00,
2013-04-24 05:17:00,38.2,32.3,30.53,SE,135,0.0,0.0,79,0.00,,---,0.00,VWS V14.01,2013-04-24 12:17:00,
2013-04-24 05:18:00,38.2,32.3,30.53,SE,135,0.0,0.0,79,0.00,,---,0.00,VWS V14.01,2013-04-24 12:18:00,
2013-04-24 05:19:00,38.2,32.3,30.53,SE,135,0.0,0.0,79,0.00,,---,0.00,VWS V14.01,2013-04-24 12:19:00,
2013-04-24 05:20:00,38.2,32.3,30.53,SSE,158,0.0,0.0,79,0.00,,---,0.00,VWS V14.01,2013-04-24 12:20:00,
2013-04-24 05:21:00,38.2,32.3,30.53,SSE,158,0.0,0.0,79,0.00,,---,0.00,VWS V14.01,2013-04-24 12:21:00,
2013-04-24 05:22:00,38.0,32.1,30.53,SSE,158,0.0,0.0,79,0.00,,---,0.00,VWS V14.01,2013-04-24 12:22:00,
2013-04-24 05:23:00,38.0,32.1,30.53,SSE,158,0.0,0.0,79,0.00,,---,0.00,VWS V14.01,2013-04-24 12:23:00,
2013-04-24 05:24:00,38.0,32.1,30.53,SSE,158,0.0,0.0,79,0.00,,---,0.00,VWS V14.01,2013-04-24 12:24:00,
2013-04-24 05:25:00,38.0,32.1,30.53,SSE,158,0.0,0.0,79,0.00,,---,0.00,VWS V14.01,2013-04-24 12:25:00,
2013-04-24 05:26:00,38.0,32.1,30.53,SSE,158,0.0,0.0,79,0.00,,---,0.00,VWS V14.01,2013-04-24 12:26:00,
2013-04-24 05:27:00,38.0,32.1,30.53,SSE,158,0.0,0.2,79,0.00,,---,0.00,VWS V14.01,2013-04-24 12:27:00,
2013-04-24 05:28:00,38.0,32.1,30.53,SSE,158,0.0,0.0,79,0.00,,---,0.00,VWS V14.01,2013-04-24 12:28:00,
2013-04-24 05:29:00,38.0,32.1,30.53,SSE,158,0.0,0.0,79,0.00,,---,0.00,VWS V14.01,2013-04-24 12:29:00,
2013-04-24 05:30:00,38.0,32.1,30.53,SSE,158,0.0,0.0,79,0.00,,---,0.00,VWS V14.01,2013-04-24 12:30:00,
2013-04-24 05:31:00,37.8,31.9,30.53,SSE,158,0.0,0.0,79,0.00,,---,0.00,VWS V14.01,2013-04-24 12:31:00,
2013-04-24 05:32:00,37.8,31.9,30.53,SSE,158,0.0,0.0,79,0.00,,---,0.00,VWS V14.01,2013-04-24 12:32:00,
2013-04-24 05:33:00,37.8,31.9,30.53,SSE,158,0.0,0.0,79,0.00,,---,0.00,VWS V14.01,2013-04-24 12:33:00,
2013-04-24 05:34:00,37.8,31.9,30.54,SSE,158,0.0,0.0,79,0.00,,---,0.00,VWS V14.01,2013-04-24 12:34:00,
2013-04-24 05:35:00,37.8,31.9,30.53,SSE,158,0.0,0.0,79,0.00,,---,0.00,VWS V14.01,2013-04-24 12:35:00,
2013-04-24 05:36:00,37.8,31.9,30.53,SSE,158,0.0,0.0,79,0.00,,---,0.00,VWS V14.01,2013-04-24 12:36:00,
2013-04-24 05:37:00,37.8,31.9,30.54,SSE,158,0.0,0.0,79,0.00,,---,0.00,VWS V14.01,2013-04-24 12:37:00,
2013-04-24 05:38:00,37.8,31.9,30.54,SSE,158,0.0,0.0,79,0.00,,---,0.00,VWS V14.01,2013-04-24 12:38:00,
2013-04-24 05:39:00,37.8,31.9,30.54,SSE,158,0.0,0.0,79,0.00,,---,0.00,VWS V14.01,2013-04-24 12:39:00,
2013-04-24 05:40:00,37.6,31.7,30.53,SSE,158,0.0,0.0,79,0.00,,---,0.00,VWS V14.01,2013-04-24 12:40:00,
2013-04-24 05:41:00,37.6,31.7,30.53,SSE,158,0.0,0.0,79,0.00,,---,0.00,VWS V14.01,2013-04-24 12:41:00,
2013-04-24 05:42:00,37.6,31.7,30.54,SSE,158,0.0,0.0,79,0.00,,---,0.00,VWS V14.01,2013-04-24 12:42:00,
2013-04-24 05:43:00,37.6,31.7,30.54,SSE,158,0.0,0.0,79,0.00,,---,0.00,VWS V14.01,2013-04-24 12:43:00,
2013-04-24 05:44:00,37.6,31.7,30.54,SSE,158,0.0,0.0,79,0.00,,---,0.00,VWS V14.01,2013-04-24 12:44:00,
2013-04-24 05:45:00,37.6,31.7,30.54,SSE,158,0.0,0.0,79,0.00,,---,0.00,VWS V14.01,2013-04-24 12:45:00,
2013-04-24 05:46:00,37.6,31.7,30.54,South,180,0.0,0.0,79,0.00,,---,0.00,VWS V14.01,2013-04-24 12:46:00,
2013-04-24 05:47:00,37.4,31.8,30.53,South,180,1.1,1.1,80,0.00,,---,0.00,VWS V14.01,2013-04-24 12:47:00,
2013-04-24 05:48:00,37.4,31.8,30.54,ESE,112,0.9,1.1,80,0.00,,---,0.00,VWS V14.01,2013-04-24 12:48:00,
2013-04-24 05:49:00,37.4,31.8,30.53,ESE,112,0.0,0.9,80,0.00,,---,0.00,VWS V14.01,2013-04-24 12:49:00,
2013-04-24 05:50:00,37.4,32.1,30.53,North,0,0.7,0.7,81,0.00,,---,0.00,VWS V14.01,2013-04-24 12:50:00,
2013-04-24 05:51:00,37.4,32.4,30.53,North,0,0.7,0.7,82,0.00,,---,0.00,VWS V14.01,2013-04-24 12:51:00,
2013-04-24 05:52:00,37.4,32.4,30.53,North,0,0.7,0.7,82,0.00,,---,0.00,VWS V14.01,2013-04-24 12:52:00,
2013-04-24 05:53:00,37.4,32.4,30.54,ESE,112,0.4,0.9,82,0.00,,---,0.00,VWS V14.01,2013-04-24 12:53:00,
2013-04-24 05:54:00,37.4,32.4,30.54,NNE,22,1.8,1.8,82,0.00,,---,0.00,VWS V14.01,2013-04-24 12:54:00,
2013-04-24 05:55:00,37.4,32.1,30.54,NNE,22,1.3,2.5,81,0.00,,---,0.00,VWS V14.01,2013-04-24 12:55:00,
2013-04-24 05:56:00,37.4,32.1,30.54,NNE,22,1.3,2.5,81,0.00,,---,0.00,VWS V14.01,2013-04-24 12:56:00,
2013-04-24 05:57:00,37.4,32.1,30.54,SE,135,0.4,1.3,81,0.00,,---,0.00,VWS V14.01,2013-04-24 12:57:00,
2013-04-24 05:58:00,37.4,32.1,30.54,ESE,112,0.9,0.9,81,0.00,,---,0.00,VWS V14.01,2013-04-24 12:58:00,
2013-04-24 05:59:00,37.4,32.1,30.54,NE,45,1.1,1.1,81,0.00,,---,0.00,VWS V14.01,2013-04-24 12:59:00,
2013-04-24 06:00:00,37.6,32.0,30.53,NE,45,0.9,0.9,80,0.00,,---,0.00,VWS V14.01,2013-04-24 13:00:00,
2013-04-24 06:01:00,37.4,32.1,30.53,NE,45,0.9,0.9,81,0.00,,---,0.00,VWS V14.01,2013-04-24 13:01:00,
2013-04-24 06:02:00,37.6,32.0,30.54,NE,45,0.4,0.9,80,0.00,,---,0.00,VWS V14.01,2013-04-24 13:02:00,
2013-04-24 06:03:00,37.4,31.8,30.53,ENE,68,0.9,0.9,80,0.00,,---,0.00,VWS V14.01,2013-04-24 13:03:00,
2013-04-24 06:04:00,37.6,32.0,30.53,ENE,68,0.0,0.9,80,0.00,,---,0.00,VWS V14.01,2013-04-24 13:04:00,
2013-04-24 06:05:00,37.4,31.8,30.53,ENE,68,0.9,0.9,80,0.00,,---,0.00,VWS V14.01,2013-04-24 13:05:00,
2013-04-24 06:06:00,37.4,31.8,30.53,ENE,68,0.9,0.9,80,0.00,,---,0.00,VWS V14.01,2013-04-24 13:06:00,
2013-04-24 06:07:00,37.4,31.8,30.53,ENE,68,0.2,0.9,80,0.00,,---,0.00,VWS V14.01,2013-04-24 13:07:00,
2013-04-24 06:08:00,37.4,31.8,30.53,NE,45,1.1,1.1,80,0.00,,---,0.00,VWS V14.01,2013-04-24 13:08:00,
2013-04-24 06:09:00,37.4,31.8,30.53,NE,45,1.1,1.1,80,0.00,,---,0.00,VWS V14.01,2013-04-24 13:09:00,
2013-04-24 06:10:00,37.3,31.7,30.53,NNE,22,2.0,2.0,80,0.00,,---,0.00,VWS V14.01,2013-04-24 13:10:00,
2013-04-24 06:11:00,37.3,31.7,30.53,NNE,22,2.0,2.0,80,0.00,,---,0.00,VWS V14.01,2013-04-24 13:11:00,
2013-04-24 06:12:00,37.3,31.7,30.53,NNE,22,1.8,2.0,80,0.00,,---,0.00,VWS V14.01,2013-04-24 13:12:00,
2013-04-24 06:13:00,37.1,31.5,30.53,NNE,22,1.6,2.5,80,0.00,,---,0.00,VWS V14.01,2013-04-24 13:13:00,
2013-04-24 06:14:00,37.1,31.5,30.53,NE,45,2.5,2.5,80,0.00,,---,0.00,VWS V14.01,2013-04-24 13:14:00,
2013-04-24 06:15:00,37.1,31.5,30.53,NE,45,1.3,1.3,80,0.00,,---,0.00,VWS V14.01,2013-04-24 13:15:00,
2013-04-24 06:16:00,37.1,31.5,30.53,NE,45,1.8,1.8,80,0.00,,---,0.00,VWS V14.01,2013-04-24 13:16:00,
2013-04-24 06:17:00,37.1,31.5,30.53,NE,45,1.6,1.8,80,0.00,,---,0.00,VWS V14.01,2013-04-24 13:17:00,
2013-04-24 06:18:00,37.1,31.5,30.53,NE,45,0.9,1.6,80,0.00,,---,0.00,VWS V14.01,2013-04-24 13:18:00,
2013-04-24 06:19:00,37.1,31.5,30.53,NE,45,0.4,0.9,80,0.00,,---,0.00,VWS V14.01,2013-04-24 13:19:00,
2013-04-24 06:20:00,37.1,31.5,30.53,NE,45,0.7,0.7,80,0.00,,---,0.00,VWS V14.01,2013-04-24 13:20:00,
2013-04-24 06:21:00,37.1,31.5,30.53,NNE,22,0.9,1.1,80,0.00,,---,0.00,VWS V14.01,2013-04-24 13:21:00,
2013-04-24 06:22:00,37.1,31.5,30.53,NNE,22,1.1,1.1,80,0.00,,---,0.00,VWS V14.01,2013-04-24 13:22:00,
2013-04-24 06:23:00,37.1,31.5,30.53,ENE,68,0.7,1.1,80,0.00,,---,0.00,VWS V14.01,2013-04-24 13:23:00,
2013-04-24 06:24:00,37.1,31.5,30.53,ENE,68,1.1,1.1,80,0.00,,---,0.00,VWS V14.01,2013-04-24 13:24:00,
2013-04-24 06:25:00,37.1,31.5,30.53,ENE,68,0.4,0.4,80,0.00,,---,0.00,VWS V14.01,2013-04-24 13:25:00,
2013-04-24 06:26:00,37.1,31.5,30.53,ENE,68,0.7,0.7,80,0.00,,---,0.00,VWS V14.01,2013-04-24 13:26:00,
2013-04-24 06:27:00,37.1,31.5,30.53,NNE,22,0.9,0.9,80,0.00,,---,0.00,VWS V14.01,2013-04-24 13:27:00,
2013-04-24 06:28:00,37.1,31.5,30.53,East,90,0.7,0.9,80,0.00,,---,0.00,VWS V14.01,2013-04-24 13:28:00,
2013-04-24 06:29:00,37.1,31.5,30.53,ENE,68,0.0,0.7,80,0.00,,---,0.00,VWS V14.01,2013-04-24 13:29:00,
2013-04-24 06:30:00,37.3,32.0,30.53,NE,45,0.7,0.7,81,0.00,,---,0.00,VWS V14.01,2013-04-24 13:30:00,
2013-04-24 06:31:00,37.3,32.0,30.53,NE,45,0.7,0.7,81,0.00,,---,0.00,VWS V14.01,2013-04-24 13:31:00,
2013-04-24 06:32:00,37.3,32.0,30.53,ENE,68,0.7,0.7,81,0.00,,---,0.00,VWS V14.01,2013-04-24 13:32:00,
2013-04-24 06:33:00,37.3,32.0,30.53,NE,45,1.1,1.1,81,0.00,,---,0.00,VWS V14.01,2013-04-24 13:33:00,
2013-04-24 06:34:00,37.4,31.8,30.53,NE,45,0.7,1.1,80,0.00,,---,0.00,VWS V14.01,2013-04-24 13:34:00,
2013-04-24 06:35:00,37.4,32.1,30.53,NE,45,1.6,1.6,81,0.00,,---,0.00,VWS V14.01,2013-04-24 13:35:00,
2013-04-24 06:36:00,37.4,32.1,30.53,NE,45,0.4,1.6,81,0.00,,---,0.00,VWS V14.01,2013-04-24 13:36:00,
2013-04-24 06:37:00,37.4,32.1,30.53,NE,45,0.9,0.9,81,0.00,,---,0.00,VWS V14.01,2013-04-24 13:37:00,
2013-04-24 06:38:00,37.6,32.3,30.53,NNE,22,1.1,1.1,81,0.00,,---,0.00,VWS V14.01,2013-04-24 13:38:00,
2013-04-24 06:39:00,37.6,32.3,30.52,ESE,112,1.3,1.6,81,0.00,,---,0.00,VWS V14.01,2013-04-24 13:39:00,
2013-04-24 06:40:00,37.8,32.5,30.52,NE,45,0.7,0.9,81,0.00,,---,0.00,VWS V14.01,2013-04-24 13:40:00,
2013-04-24 06:41:00,37.8,32.5,30.52,NE,45,0.7,0.9,81,0.00,,---,0.00,VWS V14.01,2013-04-24 13:41:00,
2013-04-24 06:42:00,37.8,32.5,30.52,NE,45,0.7,0.7,81,0.00,,---,0.00,VWS V14.01,2013-04-24 13:42:00,
2013-04-24 06:43:00,37.8,32.5,30.52,NE,45,2.0,2.0,81,0.00,,---,0.00,VWS V14.01,2013-04-24 13:43:00,
2013-04-24 06:44:00,38.0,32.7,30.52,NE,45,0.2,2.0,81,0.00,,---,0.00,VWS V14.01,2013-04-24 13:44:00,
2013-04-24 06:45:00,38.0,32.7,30.52,NNE,22,1.1,1.1,81,0.00,,---,0.00,VWS V14.01,2013-04-24 13:45:00,
2013-04-24 06:46:00,38.2,32.9,30.52,NE,45,1.1,1.1,81,0.00,,---,0.00,VWS V14.01,2013-04-24 13:46:00,
2013-04-24 06:47:00,38.2,32.9,30.52,NE,45,1.1,1.1,81,0.00,,---,0.00,VWS V14.01,2013-04-24 13:47:00,
2013-04-24 06:48:00,38.2,32.9,30.52,NNE,22,0.4,1.1,81,0.00,,---,0.00,VWS V14.01,2013-04-24 13:48:00,
2013-04-24 06:49:00,38.2,33.2,30.52,NNE,22,1.1,1.8,82,0.00,,---,0.00,VWS V14.01,2013-04-24 13:49:00,
2013-04-24 06:50:00,38.3,33.0,30.52,North,0,1.3,1.3,81,0.00,,---,0.00,VWS V14.01,2013-04-24 13:50:00,
2013-04-24 06:51:00,38.3,33.0,30.52,NE,45,1.6,1.6,81,0.00,,---,0.00,VWS V14.01,2013-04-24 13:51:00,
2013-04-24 06:52:00,38.5,33.5,30.52,NE,45,1.1,1.6,82,0.00,,---,0.00,VWS V14.01,2013-04-24 13:52:00,
2013-04-24 06:53:00,38.5,33.5,30.52,NE,45,1.8,2.2,82,0.00,,---,0.00,VWS V14.01,2013-04-24 13:53:00,
2013-04-24 06:54:00,38.7,33.7,30.52,NNW,338,1.6,1.8,82,0.00,,---,0.00,VWS V14.01,2013-04-24 13:54:00,
2013-04-24 06:55:00,38.9,33.9,30.52,NNE,22,0.9,0.9,82,0.00,,---,0.00,VWS V14.01,2013-04-24 13:55:00,
2013-04-24 06:56:00,39.1,34.1,30.52,North,0,0.7,0.9,82,0.00,,---,0.00,VWS V14.01,2013-04-24 13:56:00,
2013-04-24 06:57:00,39.2,34.2,30.52,North,0,0.0,0.7,82,0.00,,---,0.00,VWS V14.01,2013-04-24 13:57:00,
2013-04-24 06:58:00,39.2,33.9,30.52,NE,45,1.3,1.3,81,0.00,,---,0.00,VWS V14.01,2013-04-24 13:58:00,
2013-04-24 06:59:00,39.2,33.9,30.52,ENE,68,0.7,1.3,81,0.00,,---,0.00,VWS V14.01,2013-04-24 13:59:00,
2013-04-24 07:00:00,39.4,34.1,30.52,NE,45,1.1,1.1,81,0.00,,---,0.00,VWS V14.01,2013-04-24 14:00:00,
2013-04-24 07:01:00,39.4,34.1,30.52,NNE,22,0.9,1.1,81,0.00,,---,0.00,VWS V14.01,2013-04-24 14:01:00,
2013-04-24 07:02:00,39.6,34.3,30.52,North,0,1.1,1.1,81,0.00,,---,0.00,VWS V14.01,2013-04-24 14:02:00,
2013-04-24 07:03:00,39.6,34.3,30.52,NNE,22,1.6,1.6,81,0.00,,---,0.00,VWS V14.01,2013-04-24 14:03:00,
2013-04-24 07:04:00,39.8,34.1,30.52,NNE,22,0.4,1.6,80,0.00,,---,0.00,VWS V14.01,2013-04-24 14:04:00,
2013-04-24 07:05:00,40.0,34.3,30.52,South,180,0.4,0.9,80,0.00,,---,0.00,VWS V14.01,2013-04-24 14:05:00,
2013-04-24 07:06:00,40.0,34.3,30.52,South,180,0.0,0.9,80,0.00,,---,0.00,VWS V14.01,2013-04-24 14:06:00,
2013-04-24 07:07:00,40.0,34.3,30.52,South,180,0.0,0.0,80,0.00,,---,0.00,VWS V14.01,2013-04-24 14:07:00,
2013-04-24 07:08:00,40.0,34.3,30.52,South,180,0.7,0.7,80,0.00,,---,0.00,VWS V14.01,2013-04-24 14:08:00,
2013-04-24 07:09:00,40.1,34.8,30.52,South,180,0.0,0.7,81,0.00,,---,0.00,VWS V14.01,2013-04-24 14:09:00,
2013-04-24 07:10:00,40.3,34.9,30.52,South,180,0.0,0.0,81,0.00,,---,0.00,VWS V14.01,2013-04-24 14:10:00,
2013-04-24 07:11:00,40.3,34.9,30.52,South,180,0.4,0.4,81,0.00,,---,0.00,VWS V14.01,2013-04-24 14:11:00,
2013-04-24 07:12:00,40.5,35.1,30.52,South,180,1.6,2.0,81,0.00,,---,0.00,VWS V14.01,2013-04-24 14:12:00,
2013-04-24 07:13:00,40.5,35.1,30.52,South,180,1.3,1.6,81,0.00,,---,0.00,VWS V14.01,2013-04-24 14:13:00,
2013-04-24 07:14:00,40.7,35.3,30.52,NNE,22,2.2,2.5,81,0.00,,---,0.00,VWS V14.01,2013-04-24 14:14:00,
2013-04-24 07:15:00,40.7,35.3,30.52,ENE,68,1.8,1.8,81,0.00,,---,0.00,VWS V14.01,2013-04-24 14:15:00,
2013-04-24 07:16:00,40.7,35.3,30.52,NE,45,1.1,1.8,81,0.00,,---,0.00,VWS V14.01,2013-04-24 14:16:00,
2013-04-24 07:17:00,40.9,35.2,30.52,NE,45,0.0,1.1,80,0.00,,---,0.00,VWS V14.01,2013-04-24 14:17:00,
2013-04-24 07:18:00,40.9,35.2,30.52,NE,45,0.0,0.0,80,0.00,,---,0.00,VWS V14.01,2013-04-24 14:18:00,
2013-04-24 07:19:00,41.0,35.3,30.52,NE,45,0.0,0.0,80,0.00,,---,0.00,VWS V14.01,2013-04-24 14:19:00,
2013-04-24 07:20:00,41.0,35.3,30.52,NE,45,0.0,0.0,80,0.00,,---,0.00,VWS V14.01,2013-04-24 14:20:00,
2013-04-24 07:21:00,41.2,35.5,30.52,NE,45,0.0,0.0,80,0.00,,---,0.00,VWS V14.01,2013-04-24 14:21:00,
2013-04-24 07:22:00,41.2,35.5,30.52,NE,45,0.0,0.0,80,0.00,,---,0.00,VWS V14.01,2013-04-24 14:22:00,
2013-04-24 07:23:00,41.2,35.5,30.52,NE,45,0.0,0.0,80,0.00,,---,0.00,VWS V14.01,2013-04-24 14:23:00,
2013-04-24 07:24:00,41.0,35.3,30.52,NE,45,0.2,0.2,80,0.00,,---,0.00,VWS V14.01,2013-04-24 14:24:00,
2013-04-24 07:25:00,41.2,35.5,30.52,NE,45,0.0,0.0,80,0.00,,---,0.00,VWS V14.01,2013-04-24 14:25:00,
2013-04-24 07:26:00,41.2,35.5,30.52,NE,45,0.0,0.0,80,0.00,,---,0.00,VWS V14.01,2013-04-24 14:26:00,
2013-04-24 07:27:00,41.4,35.7,30.52,North,0,0.0,0.0,80,0.00,,---,0.00,VWS V14.01,2013-04-24 14:27:00,
2013-04-24 07:28:00,41.4,35.7,30.51,North,0,0.0,0.0,80,0.00,,---,0.00,VWS V14.01,2013-04-24 14:28:00,
2013-04-24 07:29:00,41.4,35.7,30.52,North,0,0.0,0.0,80,0.00,,---,0.00,VWS V14.01,2013-04-24 14:29:00,
2013-04-24 07:30:00,41.4,35.7,30.52,NNE,22,0.0,0.0,80,0.00,,---,0.00,VWS V14.01,2013-04-24 14:30:00,
2013-04-24 07:31:00,41.4,35.7,30.52,NNE,22,0.0,0.0,80,0.00,,---,0.00,VWS V14.01,2013-04-24 14:31:00,
2013-04-24 07:32:00,41.4,35.4,30.52,NNE,22,0.0,0.0,79,0.00,,---,0.00,VWS V14.01,2013-04-24 14:32:00,
2013-04-24 07:33:00,41.6,35.9,30.51,NNE,22,0.0,0.0,80,0.00,,---,0.00,VWS V14.01,2013-04-24 14:33:00,
2013-04-24 07:34:00,41.6,35.9,30.52,NNE,22,0.0,0.0,80,0.00,,---,0.00,VWS V14.01,2013-04-24 14:34:00,
2013-04-24 07:35:00,41.8,35.8,30.52,NNE,22,0.4,1.1,79,0.00,,---,0.00,VWS V14.01,2013-04-24 14:35:00,
2013-04-24 07:36:00,41.8,35.8,30.52,NNE,22,1.6,1.6,79,0.00,,---,0.00,VWS V14.01,2013-04-24 14:36:00,
2013-04-24 07:37:00,41.9,35.9,30.52,NE,45,0.2,1.6,79,0.00,,---,0.00,VWS V14.01,2013-04-24 14:37:00,
2013-04-24 07:38:00,42.1,36.1,30.52,NNE,22,0.0,0.2,79,0.00,,---,0.00,VWS V14.01,2013-04-24 14:38:00,
2013-04-24 07:39:00,42.1,36.1,30.52,NNE,22,0.0,0.0,79,0.00,,---,0.00,VWS V14.01,2013-04-24 14:39:00,
2013-04-24 07:40:00,42.3,36.3,30.52,NNE,22,0.0,0.0,79,0.00,,---,0.00,VWS V14.01,2013-04-24 14:40:00,
2013-04-24 07:41:00,42.3,36.3,30.52,NNE,22,0.0,0.0,79,0.00,,---,0.00,VWS V14.01,2013-04-24 14:41:00,
2013-04-24 07:42:00,42.5,36.5,30.52,NNE,22,0.0,0.0,79,0.00,,---,0.00,VWS V14.01,2013-04-24 14:42:00,
2013-04-24 07:43:00,42.5,36.5,30.52,NNE,22,0.0,0.0,79,0.00,,---,0.00,VWS V14.01,2013-04-24 14:43:00,
2013-04-24 07:44:00,42.5,36.5,30.52,NNE,22,0.0,0.0,79,0.00,,---,0.00,VWS V14.01,2013-04-24 14:44:00,
2013-04-24 07:45:00,42.7,36.7,30.52,NNE,22,0.0,0.0,79,0.00,,---,0.00,VWS V14.01,2013-04-24 14:45:00,
2013-04-24 07:46:00,42.7,36.7,30.52,NNE,22,0.0,0.0,79,0.00,,---,0.00,VWS V14.01,2013-04-24 14:46:00,
2013-04-24 07:47:00,42.7,36.7,30.52,NNE,22,0.0,0.0,79,0.00,,---,0.00,VWS V14.01,2013-04-24 14:47:00,
2013-04-24 07:48:00,42.8,36.8,30.52,NNE,22,0.0,0.0,79,0.00,,---,0.00,VWS V14.01,2013-04-24 14:48:00,
2013-04-24 07:49:00,42.8,36.8,30.52,NNE,22,0.0,0.0,79,0.00,,---,0.00,VWS V14.01,2013-04-24 14:49:00,
2013-04-24 07:50:00,43.0,36.6,30.52,SSE,158,0.0,0.0,78,0.00,,---,0.00,VWS V14.01,2013-04-24 14:50:00,
2013-04-24 07:51:00,43.0,36.6,30.52,SSE,158,0.0,0.0,78,0.00,,---,0.00,VWS V14.01,2013-04-24 14:51:00,
2013-04-24 07:52:00,43.2,36.8,30.52,SE,135,0.0,0.0,78,0.00,,---,0.00,VWS V14.01,2013-04-24 14:52:00,
2013-04-24 07:53:00,43.4,37.0,30.52,SE,135,0.0,0.0,78,0.00,,---,0.00,VWS V14.01,2013-04-24 14:53:00,
2013-04-24 07:54:00,43.4,37.0,30.52,SE,135,0.0,0.0,78,0.00,,---,0.00,VWS V14.01,2013-04-24 14:54:00,
2013-04-24 07:55:00,43.4,37.0,30.52,ESE,112,0.0,0.0,78,0.00,,---,0.00,VWS V14.01,2013-04-24 14:55:00,
2013-04-24 07:56:00,43.6,37.2,30.52,ESE,112,0.0,0.0,78,0.00,,---,0.00,VWS V14.01,2013-04-24 14:56:00,
2013-04-24 07:57:00,43.6,37.2,30.52,NNE,22,0.0,0.0,78,0.00,,---,0.00,VWS V14.01,2013-04-24 14:57:00,
2013-04-24 07:58:00,43.6,37.2,30.52,East,90,0.4,0.4,78,0.00,,---,0.00,VWS V14.01,2013-04-24 14:58:00,
2013-04-24 07:59:00,43.7,37.3,30.52,East,90,0.4,0.4,78,0.00,,---,0.00,VWS V14.01,2013-04-24 14:59:00,
2013-04-24 08:00:00,43.7,37.3,30.52,East,90,0.4,0.4,78,0.00,,---,0.00,VWS V14.01,2013-04-24 15:00:00,
2013-04-24 08:01:00,43.7,37.3,30.52,ENE,68,0.9,0.9,78,0.00,,---,0.00,VWS V14.01,2013-04-24 15:01:00,
2013-04-24 08:02:00,43.9,37.5,30.52,ESE,112,0.4,0.9,78,0.00,,---,0.00,VWS V14.01,2013-04-24 15:02:00,
2013-04-24 08:03:00,43.9,37.5,30.52,ESE,112,0.2,0.4,78,0.00,,---,0.00,VWS V14.01,2013-04-24 15:03:00,
2013-04-24 08:04:00,44.1,37.7,30.52,ESE,112,0.0,0.2,78,0.00,,---,0.00,VWS V14.01,2013-04-24 15:04:00,
2013-04-24 08:05:00,44.3,37.9,30.52,ESE,112,0.0,0.0,78,0.00,,---,0.00,VWS V14.01,2013-04-24 15:05:00,
2013-04-24 08:06:00,44.3,37.9,30.52,ESE,112,0.0,0.0,78,0.00,,---,0.00,VWS V14.01,2013-04-24 15:06:00,
2013-04-24 08:07:00,44.3,37.9,30.52,ESE,112,0.0,0.0,78,0.00,,---,0.00,VWS V14.01,2013-04-24 15:07:00,
2013-04-24 08:08:00,44.5,38.1,30.52,ESE,112,0.0,0.0,78,0.00,,---,0.00,VWS V14.01,2013-04-24 15:08:00,
2013-04-24 08:09:00,44.6,37.8,30.52,ESE,112,0.0,0.0,77,0.00,,---,0.00,VWS V14.01,2013-04-24 15:09:00,
2013-04-24 08:10:00,44.6,37.8,30.52,SSE,158,0.0,0.0,77,0.00,,---,0.00,VWS V14.01,2013-04-24 15:10:00,
2013-04-24 08:11:00,44.6,37.8,30.52,SSE,158,0.0,0.0,77,0.00,,---,0.00,VWS V14.01,2013-04-24 15:11:00,
2013-04-24 08:12:00,44.8,38.0,30.52,SSE,158,0.0,0.0,77,0.00,,---,0.00,VWS V14.01,2013-04-24 15:12:00,
2013-04-24 08:13:00,45.0,38.2,30.52,SSE,158,0.0,0.0,77,0.00,,---,0.00,VWS V14.01,2013-04-24 15:13:00,
2013-04-24 08:14:00,45.0,38.2,30.52,SSE,158,0.0,0.0,77,0.00,,---,0.00,VWS V14.01,2013-04-24 15:14:00,
2013-04-24 08:15:00,45.2,38.4,30.52,SSE,158,0.0,0.0,77,0.00,,---,0.00,VWS V14.01,2013-04-24 15:15:00,
2013-04-24 08:16:00,45.4,38.6,30.52,SSE,158,0.0,0.0,77,0.00,,---,0.00,VWS V14.01,2013-04-24 15:16:00,
2013-04-24 08:17:00,45.4,38.6,30.52,SSE,158,0.0,0.0,77,0.00,,---,0.00,VWS V14.01,2013-04-24 15:17:00,
2013-04-24 08:18:00,45.5,39.0,30.52,NE,45,0.7,0.7,78,0.00,,---,0.00,VWS V14.01,2013-04-24 15:18:00,
2013-04-24 08:19:00,45.7,38.9,30.52,NNE,22,1.1,1.1,77,0.00,,---,0.00,VWS V14.01,2013-04-24 15:19:00,
2013-04-24 08:20:00,45.9,39.1,30.52,NE,45,0.4,0.4,77,0.00,,---,0.00,VWS V14.01,2013-04-24 15:20:00,
2013-04-24 08:21:00,46.1,39.3,30.52,NE,45,0.0,0.4,77,0.00,,---,0.00,VWS V14.01,2013-04-24 15:21:00,
2013-04-24 08:22:00,46.1,39.0,30.52,NE,45,0.0,0.0,76,0.00,,---,0.00,VWS V14.01,2013-04-24 15:22:00,
2013-04-24 08:23:00,46.1,39.0,30.52,NE,45,0.0,0.0,76,0.00,,---,0.00,VWS V14.01,2013-04-24 15:23:00,
2013-04-24 08:24:00,46.3,39.2,30.52,NE,45,0.0,0.0,76,0.00,,---,0.00,VWS V14.01,2013-04-24 15:24:00,
2013-04-24 08:25:00,46.4,39.3,30.52,NNE,22,0.4,0.4,76,0.00,,---,0.00,VWS V14.01,2013-04-24 15:25:00,
2013-04-24 08:26:00,46.6,39.5,30.52,NNE,22,0.4,0.4,76,0.00,,---,0.00,VWS V14.01,2013-04-24 15:26:00,
2013-04-24 08:27:00,46.8,39.3,30.52,NNE,22,0.0,0.4,75,0.00,,---,0.00,VWS V14.01,2013-04-24 15:27:00,
2013-04-24 08:28:00,46.8,39.0,30.52,NNE,22,0.0,0.0,74,0.00,,---,0.00,VWS V14.01,2013-04-24 15:28:00,
2013-04-24 08:29:00,47.2,39.3,30.52,NNE,22,0.2,0.4,74,0.00,,---,0.00,VWS V14.01,2013-04-24 15:29:00,
2013-04-24 08:30:00,47.2,39.3,30.52,NNE,22,0.4,0.4,74,0.00,,---,0.00,VWS V14.01,2013-04-24 15:30:00,
2013-04-24 08:31:00,47.3,39.4,30.52,NNE,22,0.2,0.4,74,0.00,,---,0.00,VWS V14.01,2013-04-24 15:31:00,
2013-04-24 08:32:00,47.3,39.4,30.52,NNE,22,0.2,0.2,74,0.00,,---,0.00,VWS V14.01,2013-04-24 15:32:00,
2013-04-24 08:33:00,47.5,39.6,30.52,NNE,22,0.2,0.2,74,0.00,,---,0.00,VWS V14.01,2013-04-24 15:33:00,
2013-04-24 08:34:00,47.7,39.8,30.52,NNE,22,1.8,1.8,74,0.00,,---,0.00,VWS V14.01,2013-04-24 15:34:00,
2013-04-24 08:35:00,47.9,40.0,30.52,NNE,22,1.8,1.8,74,0.00,,---,0.00,VWS V14.01,2013-04-24 15:35:00,
2013-04-24 08:36:00,47.9,40.0,30.52,NNE,22,1.8,1.8,74,0.00,,---,0.00,VWS V14.01,2013-04-24 15:36:00,
2013-04-24 08:37:00,47.9,39.7,30.52,NNE,22,1.8,1.8,73,0.00,,---,0.00,VWS V14.01,2013-04-24 15:37:00,
2013-04-24 08:38:00,48.2,39.6,30.52,North,0,0.7,1.8,72,0.00,,---,0.00,VWS V14.01,2013-04-24 15:38:00,
2013-04-24 08:39:00,48.2,39.6,30.52,North,0,0.4,0.7,72,0.00,,---,0.00,VWS V14.01,2013-04-24 15:39:00,
2013-04-24 08:40:00,48.4,39.8,30.52,North,0,0.4,0.4,72,0.00,,---,0.00,VWS V14.01,2013-04-24 15:40:00,
2013-04-24 08:41:00,48.6,40.0,30.52,North,0,0.4,0.4,72,0.00,,---,0.00,VWS V14.01,2013-04-24 15:41:00,
2013-04-24 08:42:00,48.6,40.0,30.51,ENE,68,1.3,1.3,72,0.00,,---,0.00,VWS V14.01,2013-04-24 15:42:00,
2013-04-24 08:43:00,48.8,40.2,30.51,NE,45,1.1,1.3,72,0.00,,---,0.00,VWS V14.01,2013-04-24 15:43:00,
2013-04-24 08:44:00,48.8,40.2,30.52,NNE,22,0.9,1.1,72,0.00,,---,0.00,VWS V14.01,2013-04-24 15:44:00,
2013-04-24 08:45:00,49.0,40.4,30.52,NNE,22,0.4,0.4,72,0.00,,---,0.00,VWS V14.01,2013-04-24 15:45:00,
2013-04-24 08:46:00,49.0,40.0,30.52,NNE,22,0.4,0.4,71,0.00,,---,0.00,VWS V14.01,2013-04-24 15:46:00,
2013-04-24 08:47:00,49.1,40.1,30.51,NE,45,0.9,0.9,71,0.00,,---,0.00,VWS V14.01,2013-04-24 15:47:00,
2013-04-24 08:48:00,49.3,40.3,30.52,NE,45,0.9,0.9,71,0.00,,---,0.00,VWS V14.01,2013-04-24 15:48:00,
2013-04-24 08:49:00,49.3,40.3,30.51,NE,45,0.9,0.9,71,0.00,,---,0.00,VWS V14.01,2013-04-24 15:49:00,
2013-04-24 08:50:00,49.5,40.1,30.51,NNE,22,2.5,2.5,70,0.00,,---,0.00,VWS V14.01,2013-04-24 15:50:00,
2013-04-24 08:51:00,49.7,40.3,30.51,NE,45,1.1,2.5,70,0.00,,---,0.00,VWS V14.01,2013-04-24 15:51:00,
2013-04-24 08:52:00,49.9,40.5,30.51,NE,45,2.5,2.5,70,0.00,,---,0.00,VWS V14.01,2013-04-24 15:52:00,
2013-04-24 08:53:00,50.0,40.6,30.51,NE,45,2.5,2.5,70,0.00,,---,0.00,VWS V14.01,2013-04-24 15:53:00,
2013-04-24 08:54:00,50.0,40.6,30.51,NE,45,2.5,2.5,70,0.00,,---,0.00,VWS V14.01,2013-04-24 15:54:00,
2013-04-24 08:55:00,50.2,40.8,30.51,NE,45,0.7,1.1,70,0.00,,---,0.00,VWS V14.01,2013-04-24 15:55:00,
2013-04-24 08:56:00,50.4,41.0,30.51,NE,45,0.7,1.1,70,0.00,,---,0.00,VWS V14.01,2013-04-24 15:56:00,
2013-04-24 08:57:00,50.4,40.6,30.51,NE,45,1.6,1.8,69,0.00,,---,0.00,VWS V14.01,2013-04-24 15:57:00,
2013-04-24 08:58:00,50.6,40.8,30.51,NE,45,1.3,1.6,69,0.00,,---,0.00,VWS V14.01,2013-04-24 15:58:00,
2013-04-24 08:59:00,50.8,41.0,30.51,NE,45,0.2,1.3,69,0.00,,---,0.00,VWS V14.01,2013-04-24 15:59:00,
2013-04-24 09:00:00,50.8,41.0,30.51,NE,45,0.2,0.2,69,0.00,,---,0.00,VWS V14.01,2013-04-24 16:00:00,
2013-04-24 09:01:00,50.9,41.1,30.51,NE,45,0.2,0.2,69,0.00,,---,0.00,VWS V14.01,2013-04-24 16:01:00,
2013-04-24 09:02:00,51.1,41.3,30.51,NE,45,0.2,0.2,69,0.00,,---,0.00,VWS V14.01,2013-04-24 16:02:00,
2013-04-24 09:03:00,51.3,41.1,30.51,NE,45,1.8,1.8,68,0.00,,---,0.00,VWS V14.01,2013-04-24 16:03:00,
2013-04-24 09:04:00,51.3,41.1,30.51,NE,45,1.8,1.8,68,0.00,,---,0.00,VWS V14.01,2013-04-24 16:04:00,
2013-04-24 09:05:00,51.5,41.3,30.51,ENE,68,0.2,0.2,68,0.00,,---,0.00,VWS V14.01,2013-04-24 16:05:00,
2013-04-24 09:06:00,51.5,41.3,30.51,North,0,0.2,0.2,68,0.00,,---,0.00,VWS V14.01,2013-04-24 16:06:00,
2013-04-24 09:07:00,51.5,41.3,30.51,North,0,0.2,0.2,68,0.00,,---,0.00,VWS V14.01,2013-04-24 16:07:00,
2013-04-24 09:08:00,51.7,41.5,30.51,North,0,0.2,0.2,68,0.00,,---,0.00,VWS V14.01,2013-04-24 16:08:00,
2013-04-24 09:09:00,51.8,41.6,30.51,North,0,0.2,0.2,68,0.00,,---,0.00,VWS V14.01,2013-04-24 16:09:00,
2013-04-24 09:10:00,52.0,41.8,30.51,ENE,68,0.4,0.4,68,0.00,,---,0.00,VWS V14.01,2013-04-24 16:10:00,
2013-04-24 09:11:00,52.0,41.8,30.51,ENE,68,0.4,0.4,68,0.00,,---,0.00,VWS V14.01,2013-04-24 16:11:00,
2013-04-24 09:12:00,52.0,41.8,30.51,ENE,68,0.4,0.4,68,0.00,,---,0.00,VWS V14.01,2013-04-24 16:12:00,
2013-04-24 09:13:00,52.2,41.6,30.51,East,90,0.0,0.4,67,0.00,,---,0.00,VWS V14.01,2013-04-24 16:13:00,
2013-04-24 09:14:00,52.2,41.6,30.51,East,90,0.0,0.0,67,0.00,,---,0.00,VWS V14.01,2013-04-24 16:14:00,
2013-04-24 09:15:00,52.4,41.8,30.51,East,90,0.0,0.0,67,0.00,,---,0.00,VWS V14.01,2013-04-24 16:15:00,
2013-04-24 09:16:00,52.4,41.4,30.51,SSE,158,1.1,1.1,66,0.00,,---,0.00,VWS V14.01,2013-04-24 16:16:00,
2013-04-24 09:17:00,52.6,41.6,30.51,SSE,158,0.4,1.1,66,0.00,,---,0.00,VWS V14.01,2013-04-24 16:17:00,
2013-04-24 09:48:00,52.9,41.5,30.50,South,180,0.0,0.0,65,0.00,,---,0.00,VWS V14.01,2013-04-24 16:48:00,
2013-04-24 09:49:00,56.0,40.1,30.50,SE,135,1.1,1.1,55,0.00,,---,0.00,VWS V14.01,2013-04-24 16:49:00,
2013-04-24 09:50:00,56.2,40.7,30.50,SE,135,1.1,1.1,56,0.00,,---,0.00,VWS V14.01,2013-04-24 16:50:00,
2013-04-24 09:51:00,56.3,39.4,30.50,SE,135,1.1,1.1,53,0.00,,---,0.00,VWS V14.01,2013-04-24 16:51:00,
2013-04-24 09:52:00,56.3,39.4,30.49,ENE,68,0.9,1.1,53,0.00,,---,0.00,VWS V14.01,2013-04-24 16:52:00,
2013-04-24 09:53:00,56.5,40.1,30.49,East,90,0.4,0.4,54,0.00,,---,0.00,VWS V14.01,2013-04-24 16:53:00,
2013-04-24 09:54:00,56.5,39.6,30.49,East,90,0.4,0.4,53,0.00,,---,0.00,VWS V14.01,2013-04-24 16:54:00,
2013-04-24 09:55:00,56.5,38.6,30.49,East,90,0.4,0.4,51,0.00,,---,0.00,VWS V14.01,2013-04-24 16:55:00,
2013-04-24 09:56:00,56.7,39.3,30.50,SSE,158,0.9,0.9,52,0.00,,---,0.00,VWS V14.01,2013-04-24 16:56:00,
2013-04-24 09:57:00,56.7,40.3,30.49,SSE,158,0.9,0.9,54,0.00,,---,0.00,VWS V14.01,2013-04-24 16:57:00,
2013-04-24 09:58:00,56.9,38.5,30.49,SSE,158,0.9,0.9,50,0.00,,---,0.00,VWS V14.01,2013-04-24 16:58:00,
2013-04-24 09:59:00,56.9,38.5,30.49,SSE,158,0.4,0.9,50,0.00,,---,0.00,VWS V14.01,2013-04-24 16:59:00,
2013-04-24 10:00:00,57.2,39.2,30.49,SSE,158,0.4,0.4,51,0.00,,---,0.00,VWS V14.01,2013-04-24 17:00:00,
2013-04-24 10:01:00,57.2,39.2,30.49,SSE,158,0.4,0.4,51,0.00,,---,0.00,VWS V14.01,2013-04-24 17:01:00,
2013-04-24 10:02:00,57.2,39.2,30.49,WSW,248,1.1,1.1,51,0.00,,---,0.00,VWS V14.01,2013-04-24 17:02:00,
2013-04-24 10:03:00,57.2,38.8,30.49,WSW,248,1.1,1.1,50,0.00,,---,0.00,VWS V14.01,2013-04-24 17:03:00,
2013-04-24 10:04:00,57.4,39.4,30.49,WSW,248,1.1,1.1,51,0.00,,---,0.00,VWS V14.01,2013-04-24 17:04:00,
2013-04-24 10:05:00,57.4,39.4,30.50,SSE,158,1.1,1.1,51,0.00,,---,0.00,VWS V14.01,2013-04-24 17:05:00,
2013-04-24 10:06:00,57.6,39.6,30.49,SSE,158,1.1,1.1,51,0.00,,---,0.00,VWS V14.01,2013-04-24 17:06:00,
2013-04-24 10:07:00,57.6,38.6,30.49,SSE,158,1.1,1.1,49,0.00,,---,0.00,VWS V14.01,2013-04-24 17:07:00,
2013-04-24 10:08:00,57.8,39.3,30.49,SSE,158,0.4,0.4,50,0.00,,---,0.00,VWS V14.01,2013-04-24 17:08:00,
2013-04-24 10:09:00,57.8,39.8,30.49,South,180,4.0,4.0,51,0.00,,---,0.00,VWS V14.01,2013-04-24 17:09:00,
2013-04-24 10:10:00,58.0,39.0,30.49,South,180,4.0,4.0,49,0.00,,---,0.00,VWS V14.01,2013-04-24 17:10:00,
2013-04-24 10:11:00,58.0,38.4,30.49,South,180,4.0,4.0,48,0.00,,---,0.00,VWS V14.01,2013-04-24 17:11:00,
2013-04-24 10:12:00,58.1,38.5,30.49,South,180,4.0,4.0,48,0.00,,---,0.00,VWS V14.01,2013-04-24 17:12:00,
2013-04-24 10:13:00,58.3,39.8,30.49,South,180,1.6,1.6,50,0.00,,---,0.00,VWS V14.01,2013-04-24 17:13:00,
2013-04-24 10:14:00,58.5,39.9,30.49,South,180,1.6,1.6,50,0.00,,---,0.00,VWS V14.01,2013-04-24 17:14:00,
2013-04-24 10:15:00,58.5,38.9,30.49,South,180,1.6,1.6,48,0.00,,---,0.00,VWS V14.01,2013-04-24 17:15:00,
2013-04-24 10:16:00,58.7,39.6,30.49,South,180,1.8,1.8,49,0.00,,---,0.00,VWS V14.01,2013-04-24 17:16:00,
2013-04-24 10:17:00,58.7,40.1,30.49,South,180,1.8,1.8,50,0.00,,---,0.00,VWS V14.01,2013-04-24 17:17:00,
2013-04-24 10:18:00,58.9,40.3,30.49,South,180,0.4,0.4,50,0.00,,---,0.00,VWS V14.01,2013-04-24 17:18:00,
2013-04-24 10:19:00,58.9,40.8,30.49,South,180,0.4,0.4,51,0.00,,---,0.00,VWS V14.01,2013-04-24 17:19:00,
2013-04-24 10:20:00,58.9,38.2,30.49,South,180,0.4,0.4,46,0.00,,---,0.00,VWS V14.01,2013-04-24 17:20:00,
2013-04-24 10:21:00,58.9,38.2,30.49,South,180,1.6,1.6,46,0.00,,---,0.00,VWS V14.01,2013-04-24 17:21:00,
2013-04-24 10:22:00,59.0,38.8,30.49,South,180,1.6,1.6,47,0.00,,---,0.00,VWS V14.01,2013-04-24 17:22:00,
2013-04-24 10:23:00,59.0,39.4,30.49,South,180,1.6,1.6,48,0.00,,---,0.00,VWS V14.01,2013-04-24 17:23:00,
2013-04-24 10:24:00,59.0,39.9,30.49,South,180,0.2,1.6,49,0.00,,---,0.00,VWS V14.01,2013-04-24 17:24:00,
2013-04-24 10:25:00,59.0,39.9,30.49,South,180,0.2,0.2,49,0.00,,---,0.00,VWS V14.01,2013-04-24 17:25:00,
2013-04-24 10:26:00,59.2,40.1,30.49,ENE,68,1.8,1.8,49,0.00,,---,0.00,VWS V14.01,2013-04-24 17:26:00,
2013-04-24 10:27:00,59.2,40.6,30.50,ENE,68,1.8,1.8,50,0.00,,---,0.00,VWS V14.01,2013-04-24 17:27:00,
2013-04-24 10:28:00,59.4,41.3,30.50,SSE,158,1.1,1.8,51,0.00,,---,0.00,VWS V14.01,2013-04-24 17:28:00,
2013-04-24 10:29:00,59.4,41.3,30.50,SSE,158,1.1,1.8,51,0.00,,---,0.00,VWS V14.01,2013-04-24 17:29:00,
2013-04-24 10:30:00,59.6,41.5,30.49,SSE,158,1.1,1.1,51,0.00,,---,0.00,VWS V14.01,2013-04-24 17:30:00,
2013-04-24 10:31:00,59.8,41.7,30.49,South,180,0.7,1.1,51,0.00,,---,0.00,VWS V14.01,2013-04-24 17:31:00,
2013-04-24 10:32:00,59.8,41.7,30.49,South,180,0.7,0.7,51,0.00,,---,0.00,VWS V14.01,2013-04-24 17:32:00,
2013-04-24 10:33:00,60.1,41.9,30.49,South,180,0.4,0.7,51,0.00,,---,0.00,VWS V14.01,2013-04-24 17:33:00,
2013-04-24 10:34:00,60.1,41.9,30.49,South,180,0.4,0.7,51,0.00,,---,0.00,VWS V14.01,2013-04-24 17:34:00,
2013-04-24 10:35:00,60.3,42.1,30.49,South,180,0.4,0.4,51,0.00,,---,0.00,VWS V14.01,2013-04-24 17:35:00,
2013-04-24 10:36:00,60.3,42.1,30.49,South,180,0.4,0.4,51,0.00,,---,0.00,VWS V14.01,2013-04-24 17:36:00,
2013-04-24 10:37:00,60.3,41.1,30.49,South,180,1.8,1.8,49,0.00,,---,0.00,VWS V14.01,2013-04-24 17:37:00,
2013-04-24 10:38:00,60.5,39.1,30.49,South,180,1.8,1.8,45,0.00,,---,0.00,VWS V14.01,2013-04-24 17:38:00,
2013-04-24 10:39:00,60.5,39.1,30.49,South,180,1.8,1.8,45,0.00,,---,0.00,VWS V14.01,2013-04-24 17:39:00,
2013-04-24 10:40:00,60.3,39.5,30.49,South,180,1.8,1.8,46,0.00,,---,0.00,VWS V14.01,2013-04-24 17:40:00,
2013-04-24 10:41:00,60.3,40.0,30.49,South,180,2.5,2.5,47,0.00,,---,0.00,VWS V14.01,2013-04-24 17:41:00,
2013-04-24 10:42:00,60.5,39.1,30.49,South,180,2.5,2.5,45,0.00,,---,0.00,VWS V14.01,2013-04-24 17:42:00,
2013-04-24 10:43:00,60.5,40.2,30.49,South,180,1.3,2.5,47,0.00,,---,0.00,VWS V14.01,2013-04-24 17:43:00,
2013-04-24 10:44:00,60.5,40.2,30.49,South,180,1.3,2.5,47,0.00,,---,0.00,VWS V14.01,2013-04-24 17:44:00,
2013-04-24 10:45:00,60.5,39.6,30.49,South,180,0.4,1.3,46,0.00,,---,0.00,VWS V14.01,2013-04-24 17:45:00,
2013-04-24 10:46:00,60.7,38.1,30.49,South,180,0.4,0.4,43,0.00,,---,0.00,VWS V14.01,2013-04-24 17:46:00,
2013-04-24 10:47:00,60.5,37.9,30.49,South,180,0.4,0.4,43,0.00,,---,0.00,VWS V14.01,2013-04-24 17:47:00,
2013-04-24 10:48:00,60.5,39.1,30.49,South,180,0.9,0.9,45,0.00,,---,0.00,VWS V14.01,2013-04-24 17:48:00,
2013-04-24 10:49:00,60.5,39.1,30.49,South,180,0.9,0.9,45,0.00,,---,0.00,VWS V14.01,2013-04-24 17:49:00,
2013-04-24 10:50:00,60.7,39.8,30.48,South,180,0.9,0.9,46,0.00,,---,0.00,VWS V14.01,2013-04-24 17:50:00,
2013-04-24 10:51:00,60.8,40.5,30.49,South,180,1.1,1.1,47,0.00,,---,0.00,VWS V14.01,2013-04-24 17:51:00,
2013-04-24 10:52:00,60.8,40.5,30.49,South,180,0.0,1.1,47,0.00,,---,0.00,VWS V14.01,2013-04-24 17:52:00,
2013-04-24 10:53:00,61.2,40.3,30.48,South,180,0.0,0.0,46,0.00,,---,0.00,VWS V14.01,2013-04-24 17:53:00,
2013-04-24 10:54:00,61.2,40.3,30.48,South,180,1.1,1.1,46,0.00,,---,0.00,VWS V14.01,2013-04-24 17:54:00,
2013-04-24 10:55:00,61.4,39.3,30.48,South,180,1.1,1.1,44,0.00,,---,0.00,VWS V14.01,2013-04-24 17:55:00,
2013-04-24 10:56:00,61.6,40.1,30.48,South,180,1.1,1.1,45,0.00,,---,0.00,VWS V14.01,2013-04-24 17:56:00,
2013-04-24 10:57:00,61.6,39.5,30.48,South,180,1.1,1.1,44,0.00,,---,0.00,VWS V14.01,2013-04-24 17:57:00,
2013-04-24 10:58:00,61.6,37.7,30.49,South,180,1.1,1.1,41,0.00,,---,0.00,VWS V14.01,2013-04-24 17:58:00,
2013-04-24 10:59:00,61.6,37.7,30.49,South,180,1.1,1.1,41,0.00,,---,0.00,VWS V14.01,2013-04-24 17:59:00,
2013-04-24 11:00:00,61.7,37.2,30.49,South,180,2.0,2.0,40,0.00,,---,0.00,VWS V14.01,2013-04-24 18:00:00,
2013-04-24 11:01:00,61.7,37.8,30.49,South,180,2.0,2.0,41,0.00,,---,0.00,VWS V14.01,2013-04-24 18:01:00,
2013-04-24 11:02:00,61.6,37.1,30.49,South,180,2.0,2.0,40,0.00,,---,0.00,VWS V14.01,2013-04-24 18:02:00,
2013-04-24 11:03:00,61.9,39.2,30.49,South,180,1.1,1.1,43,0.00,,---,0.00,VWS V14.01,2013-04-24 18:03:00,
2013-04-24 11:04:00,61.7,38.4,30.49,South,180,1.1,1.1,42,0.00,,---,0.00,VWS V14.01,2013-04-24 18:04:00,
2013-04-24 11:05:00,61.7,39.0,30.48,South,180,1.1,1.1,43,0.00,,---,0.00,VWS V14.01,2013-04-24 18:05:00,
2013-04-24 11:06:00,61.9,38.6,30.48,South,180,1.8,1.8,42,0.00,,---,0.00,VWS V14.01,2013-04-24 18:06:00,
2013-04-24 11:07:00,61.9,38.0,30.48,South,180,1.8,1.8,41,0.00,,---,0.00,VWS V14.01,2013-04-24 18:07:00,
2013-04-24 11:08:00,62.1,38.1,30.48,South,180,1.8,1.8,41,0.00,,---,0.00,VWS V14.01,2013-04-24 18:08:00,
2013-04-24 11:09:00,62.1,38.8,30.48,South,180,2.5,2.5,42,0.00,,---,0.00,VWS V14.01,2013-04-24 18:09:00,
2013-04-24 11:10:00,62.3,39.5,30.48,South,180,1.6,2.5,43,0.00,,---,0.00,VWS V14.01,2013-04-24 18:10:00,
2013-04-24 11:11:00,62.3,40.1,30.48,South,180,0.7,1.6,44,0.00,,---,0.00,VWS V14.01,2013-04-24 18:11:00,
2013-04-24 11:12:00,62.3,39.5,30.48,ENE,68,4.0,4.0,43,0.00,,---,0.00,VWS V14.01,2013-04-24 18:12:00,
2013-04-24 11:13:00,62.5,40.3,30.48,South,180,2.5,2.5,44,0.00,,---,0.00,VWS V14.01,2013-04-24 18:13:00,
2013-04-24 11:14:00,62.6,39.8,30.48,South,180,2.5,2.5,43,0.00,,---,0.00,VWS V14.01,2013-04-24 18:14:00,
2013-04-24 11:15:00,62.6,39.2,30.48,South,180,2.5,2.5,42,0.00,,---,0.00,VWS V14.01,2013-04-24 18:15:00,
2013-04-24 11:16:00,62.6,39.8,30.48,South,180,0.9,2.5,43,0.00,,---,0.00,VWS V14.01,2013-04-24 18:16:00,
2013-04-24 11:17:00,62.8,40.0,30.48,South,180,0.9,0.9,43,0.00,,---,0.00,VWS V14.01,2013-04-24 18:17:00,
2013-04-24 11:18:00,63.0,40.8,30.48,South,180,2.9,2.9,44,0.00,,---,0.00,VWS V14.01,2013-04-24 18:18:00,
2013-04-24 11:19:00,63.0,40.8,30.48,South,180,2.9,2.9,44,0.00,,---,0.00,VWS V14.01,2013-04-24 18:19:00,
2013-04-24 11:20:00,63.0,40.8,30.48,South,180,1.3,2.9,44,0.00,,---,0.00,VWS V14.01,2013-04-24 18:20:00,
2013-04-24 11:21:00,63.0,40.8,30.48,South,180,0.9,1.3,44,0.00,,---,0.00,VWS V14.01,2013-04-24 18:21:00,
2013-04-24 11:22:00,63.2,41.0,30.48,South,180,1.3,1.3,44,0.00,,---,0.00,VWS V14.01,2013-04-24 18:22:00,
2013-04-24 11:23:00,63.4,41.7,30.48,South,180,1.8,1.8,45,0.00,,---,0.00,VWS V14.01,2013-04-24 18:23:00,
2013-04-24 11:24:00,63.4,41.7,30.48,South,180,1.8,1.8,45,0.00,,---,0.00,VWS V14.01,2013-04-24 18:24:00,
2013-04-24 11:25:00,63.5,41.8,30.48,South,180,1.8,1.8,45,0.00,,---,0.00,VWS V14.01,2013-04-24 18:25:00,
2013-04-24 11:26:00,63.7,42.5,30.48,South,180,2.9,2.9,46,0.00,,---,0.00,VWS V14.01,2013-04-24 18:26:00,
2013-04-24 11:27:00,63.9,42.2,30.48,South,180,2.9,2.9,45,0.00,,---,0.00,VWS V14.01,2013-04-24 18:27:00,
2013-04-24 11:28:00,64.1,42.3,30.48,South,180,2.9,2.9,45,0.00,,---,0.00,VWS V14.01,2013-04-24 18:28:00,
2013-04-24 11:29:00,64.1,41.8,30.48,ENE,68,2.9,2.9,44,0.00,,---,0.00,VWS V14.01,2013-04-24 18:29:00,
2013-04-24 11:30:00,64.3,41.9,30.48,ENE,68,2.9,2.9,44,0.00,,---,0.00,VWS V14.01,2013-04-24 18:30:00,
2013-04-24 11:31:00,64.3,41.3,30.48,NNE,22,0.2,2.9,43,0.00,,---,0.00,VWS V14.01,2013-04-24 18:31:00,
2013-04-24 11:32:00,64.3,41.9,30.48,NNW,338,0.0,0.2,44,0.00,,---,0.00,VWS V14.01,2013-04-24 18:32:00,
2013-04-24 11:33:00,64.4,42.0,30.48,NNW,338,0.0,0.0,44,0.00,,---,0.00,VWS V14.01,2013-04-24 18:33:00,
2013-04-24 11:34:00,64.4,42.0,30.48,NNW,338,0.0,0.0,44,0.00,,---,0.00,VWS V14.01,2013-04-24 18:34:00,
2013-04-24 11:35:00,64.4,39.6,30.48,NNW,338,0.0,0.0,40,0.00,,---,0.00,VWS V14.01,2013-04-24 18:35:00,
2013-04-24 11:36:00,64.4,39.6,30.48,North,0,0.9,0.9,40,0.00,,---,0.00,VWS V14.01,2013-04-24 18:36:00,
2013-04-24 11:37:00,64.4,40.2,30.48,North,0,0.9,0.9,41,0.00,,---,0.00,VWS V14.01,2013-04-24 18:37:00,
2013-04-24 11:38:00,64.4,40.8,30.48,SSE,158,1.8,1.8,42,0.00,,---,0.00,VWS V14.01,2013-04-24 18:38:00,
2013-04-24 11:39:00,64.6,41.0,30.48,SSE,158,1.8,1.8,42,0.00,,---,0.00,VWS V14.01,2013-04-24 18:39:00,
2013-04-24 11:40:00,64.4,39.6,30.48,SSE,158,1.8,1.8,40,0.00,,---,0.00,VWS V14.01,2013-04-24 18:40:00,
2013-04-24 11:41:00,64.4,38.9,30.48,SSE,158,1.8,1.8,39,0.00,,---,0.00,VWS V14.01,2013-04-24 18:41:00,
2013-04-24 11:42:00,64.4,38.9,30.48,SSE,158,1.8,1.8,39,0.00,,---,0.00,VWS V14.01,2013-04-24 18:42:00,
2013-04-24 11:43:00,64.4,39.6,30.48,NE,45,2.2,4.0,40,0.00,,---,0.00,VWS V14.01,2013-04-24 18:43:00,
2013-04-24 11:44:00,64.4,40.2,30.48,NE,45,2.2,4.0,41,0.00,,---,0.00,VWS V14.01,2013-04-24 18:44:00,
2013-04-24 11:45:00,64.4,38.3,30.48,NE,45,2.2,2.2,38,0.00,,---,0.00,VWS V14.01,2013-04-24 18:45:00,
2013-04-24 11:46:00,64.4,39.6,30.47,SSE,158,1.1,2.2,40,0.00,,---,0.00,VWS V14.01,2013-04-24 18:46:00,
2013-04-24 11:47:00,64.4,39.6,30.47,SSE,158,1.1,1.1,40,0.00,,---,0.00,VWS V14.01,2013-04-24 18:47:00,
2013-04-24 11:48:00,64.4,38.9,30.47,SSE,158,1.1,1.1,39,0.00,,---,0.00,VWS V14.01,2013-04-24 18:48:00,
2013-04-24 11:49:00,64.4,38.9,30.47,SSE,158,1.1,1.1,39,0.00,,---,0.00,VWS V14.01,2013-04-24 18:49:00,
2013-04-24 11:50:00,64.4,39.6,30.47,South,180,0.4,1.1,40,0.00,,---,0.00,VWS V14.01,2013-04-24 18:50:00,
2013-04-24 11:51:00,64.4,40.2,30.47,South,180,0.4,0.4,41,0.00,,---,0.00,VWS V14.01,2013-04-24 18:51:00,
2013-04-24 11:52:00,64.4,40.8,30.47,South,180,0.4,0.4,42,0.00,,---,0.00,VWS V14.01,2013-04-24 18:52:00,
2013-04-24 11:53:00,64.6,39.8,30.47,South,180,0.4,0.4,40,0.00,,---,0.00,VWS V14.01,2013-04-24 18:53:00,
2013-04-24 11:54:00,64.6,39.1,30.47,NE,45,2.9,2.9,39,0.00,,---,0.00,VWS V14.01,2013-04-24 18:54:00,
2013-04-24 11:55:00,64.6,39.8,30.47,NNE,22,2.2,2.9,40,0.00,,---,0.00,VWS V14.01,2013-04-24 18:55:00,
2013-04-24 11:56:00,64.8,39.3,30.47,NNE,22,2.2,2.2,39,0.00,,---,0.00,VWS V14.01,2013-04-24 18:56:00,
2013-04-24 11:57:00,64.8,39.9,30.47,South,180,0.7,2.2,40,0.00,,---,0.00,VWS V14.01,2013-04-24 18:57:00,
2013-04-24 11:58:00,65.0,40.8,30.47,South,180,0.4,0.7,41,0.00,,---,0.00,VWS V14.01,2013-04-24 18:58:00,
2013-04-24 11:59:00,65.0,41.4,30.47,South,180,0.4,0.7,42,0.00,,---,0.00,VWS V14.01,2013-04-24 18:59:00,
2013-04-24 12:00:00,65.2,41.5,30.47,South,180,0.4,0.4,42,0.00,,---,0.00,VWS V14.01,2013-04-24 19:00:00,
2013-04-24 12:01:00,65.3,42.2,30.47,ENE,68,2.0,2.0,43,0.00,,---,0.00,VWS V14.01,2013-04-24 19:01:00,
2013-04-24 12:02:00,65.5,42.4,30.46,ENE,68,1.8,2.0,43,0.00,,---,0.00,VWS V14.01,2013-04-24 19:02:00,
2013-04-24 12:03:00,65.7,43.2,30.46,ESE,112,1.1,1.3,44,0.00,,---,0.00,VWS V14.01,2013-04-24 19:03:00,
2013-04-24 12:04:00,65.9,43.4,30.46,ESE,112,1.1,1.3,44,0.00,,---,0.00,VWS V14.01,2013-04-24 19:04:00,
2013-04-24 12:05:00,66.1,43.6,30.46,East,90,1.1,1.1,44,0.00,,---,0.00,VWS V14.01,2013-04-24 19:05:00,
2013-04-24 12:06:00,66.4,43.8,30.46,ENE,68,0.9,1.1,44,0.00,,---,0.00,VWS V14.01,2013-04-24 19:06:00,
2013-04-24 12:07:00,66.4,43.8,30.46,ENE,68,0.9,0.9,44,0.00,,---,0.00,VWS V14.01,2013-04-24 19:07:00,
2013-04-24 12:08:00,66.6,40.9,30.46,ENE,68,0.9,0.9,39,0.00,,---,0.00,VWS V14.01,2013-04-24 19:08:00,
2013-04-24 12:09:00,66.6,39.5,30.46,West,270,5.1,5.1,37,0.00,,---,0.00,VWS V14.01,2013-04-24 19:09:00,
2013-04-24 12:10:00,66.8,39.7,30.46,West,270,5.1,5.1,37,0.00,,---,0.00,VWS V14.01,2013-04-24 19:10:00,
2013-04-24 12:11:00,66.6,39.5,30.46,NW,315,3.4,5.1,37,0.00,,---,0.00,VWS V14.01,2013-04-24 19:11:00,
2013-04-24 12:12:00,66.6,38.1,30.46,NW,315,3.4,3.4,35,0.00,,---,0.00,VWS V14.01,2013-04-24 19:12:00,
2013-04-24 12:13:00,66.1,39.1,30.46,WNW,292,4.0,4.0,37,0.00,,---,0.00,VWS V14.01,2013-04-24 19:13:00,
2013-04-24 12:14:00,66.1,39.1,30.46,WNW,292,4.0,4.0,37,0.00,,---,0.00,VWS V14.01,2013-04-24 19:14:00,
2013-04-24 12:15:00,65.9,39.6,30.46,WNW,292,4.0,4.0,38,0.00,,---,0.00,VWS V14.01,2013-04-24 19:15:00,
2013-04-24 12:16:00,65.9,40.3,30.46,SSE,158,1.8,4.0,39,0.00,,---,0.00,VWS V14.01,2013-04-24 19:16:00,
2013-04-24 12:17:00,65.9,40.3,30.46,SSE,158,1.8,1.8,39,0.00,,---,0.00,VWS V14.01,2013-04-24 19:17:00,
2013-04-24 12:18:00,66.1,39.8,30.45,South,180,1.1,1.1,38,0.00,,---,0.00,VWS V14.01,2013-04-24 19:18:00,
2013-04-24 12:19:00,66.1,40.5,30.45,South,180,1.1,1.1,39,0.00,,---,0.00,VWS V14.01,2013-04-24 19:19:00,
2013-04-24 12:20:00,66.2,41.2,30.45,South,180,0.7,1.1,40,0.00,,---,0.00,VWS V14.01,2013-04-24 19:20:00,
2013-04-24 12:21:00,66.2,40.5,30.45,South,180,3.4,3.4,39,0.00,,---,0.00,VWS V14.01,2013-04-24 19:21:00,
2013-04-24 12:22:00,66.4,40.7,30.45,South,180,3.4,3.4,39,0.00,,---,0.00,VWS V14.01,2013-04-24 19:22:00,
2013-04-24 12:23:00,66.6,40.2,30.45,South,180,0.4,0.4,38,0.00,,---,0.00,VWS V14.01,2013-04-24 19:23:00,
2013-04-24 12:24:00,66.6,39.5,30.45,South,180,0.4,0.4,37,0.00,,---,0.00,VWS V14.01,2013-04-24 19:24:00,
2013-04-24 12:25:00,66.6,40.9,30.45,South,180,0.4,0.4,39,0.00,,---,0.00,VWS V14.01,2013-04-24 19:25:00,
2013-04-24 12:26:00,66.8,41.1,30.45,South,180,0.4,0.4,39,0.00,,---,0.00,VWS V14.01,2013-04-24 19:26:00,
2013-04-24 12:27:00,66.8,41.1,30.45,SE,135,1.3,1.3,39,0.00,,---,0.00,VWS V14.01,2013-04-24 19:27:00,
2013-04-24 12:28:00,67.0,41.2,30.45,SE,135,1.3,1.3,39,0.00,,---,0.00,VWS V14.01,2013-04-24 19:28:00,
2013-04-24 12:29:00,67.0,41.2,30.45,SE,135,1.3,1.3,39,0.00,,---,0.00,VWS V14.01,2013-04-24 19:29:00,
2013-04-24 12:30:00,67.0,41.9,30.45,SSE,158,1.1,1.3,40,0.00,,---,0.00,VWS V14.01,2013-04-24 19:30:00,
2013-04-24 12:31:00,67.3,42.2,30.45,SSE,158,1.1,1.1,40,0.00,,---,0.00,VWS V14.01,2013-04-24 19:31:00,
2013-04-24 12:32:00,67.3,40.8,30.45,SSE,158,1.1,1.1,38,0.00,,---,0.00,VWS V14.01,2013-04-24 19:32:00,
2013-04-24 12:33:00,67.3,40.8,30.45,South,180,2.5,2.5,38,0.00,,---,0.00,VWS V14.01,2013-04-24 19:33:00,
2013-04-24 12:34:00,67.3,40.8,30.45,South,180,2.5,2.5,38,0.00,,---,0.00,VWS V14.01,2013-04-24 19:34:00,
2013-04-24 12:35:00,67.3,40.2,30.45,South,180,2.5,2.5,37,0.00,,---,0.00,VWS V14.01,2013-04-24 19:35:00,
2013-04-24 12:36:00,67.3,40.2,30.45,South,180,2.5,2.5,37,0.00,,---,0.00,VWS V14.01,2013-04-24 19:36:00,
2013-04-24 12:37:00,67.3,40.2,30.45,South,180,2.5,2.5,37,0.00,,---,0.00,VWS V14.01,2013-04-24 19:37:00,
2013-04-24 12:38:00,67.5,41.7,30.45,South,180,2.5,2.5,39,0.00,,---,0.00,VWS V14.01,2013-04-24 19:38:00,
2013-04-24 12:39:00,67.5,41.7,30.45,South,180,2.5,2.5,39,0.00,,---,0.00,VWS V14.01,2013-04-24 19:39:00,
2013-04-24 12:40:00,67.5,40.3,30.44,South,180,2.5,2.5,37,0.00,,---,0.00,VWS V14.01,2013-04-24 19:40:00,
2013-04-24 12:41:00,67.7,40.5,30.44,South,180,2.5,2.5,37,0.00,,---,0.00,VWS V14.01,2013-04-24 19:41:00,
2013-04-24 12:42:00,67.7,40.5,30.45,South,180,2.5,2.5,37,0.00,,---,0.00,VWS V14.01,2013-04-24 19:42:00,
2013-04-24 12:43:00,67.7,40.5,30.44,South,180,2.5,2.5,37,0.00,,---,0.00,VWS V14.01,2013-04-24 19:43:00,
2013-04-24 12:44:00,67.7,39.1,30.44,South,180,2.5,2.5,35,0.00,,---,0.00,VWS V14.01,2013-04-24 19:44:00,
2013-04-24 12:45:00,67.9,41.4,30.44,East,90,2.5,2.5,38,0.00,,---,0.00,VWS V14.01,2013-04-24 19:45:00,
2013-04-24 12:46:00,67.9,40.7,30.44,East,90,2.5,2.5,37,0.00,,---,0.00,VWS V14.01,2013-04-24 19:46:00,
2013-04-24 12:47:00,68.0,40.8,30.44,NNW,338,1.8,2.5,37,0.00,,---,0.00,VWS V14.01,2013-04-24 19:47:00,
2013-04-24 12:48:00,68.0,40.8,30.44,NNW,338,1.8,1.8,37,0.00,,---,0.00,VWS V14.01,2013-04-24 19:48:00,
2013-04-24 12:49:00,68.0,41.5,30.44,NNW,338,1.8,1.8,38,0.00,,---,0.00,VWS V14.01,2013-04-24 19:49:00,
2013-04-24 12:50:00,68.0,41.5,30.44,NNW,338,1.8,1.8,38,0.00,,---,0.00,VWS V14.01,2013-04-24 19:50:00,
2013-04-24 12:51:00,68.2,41.7,30.44,South,180,4.3,4.3,38,0.00,,---,0.00,VWS V14.01,2013-04-24 19:51:00,
2013-04-24 12:52:00,68.4,41.8,30.44,South,180,4.3,4.3,38,0.00,,---,0.00,VWS V14.01,2013-04-24 19:52:00,
2013-04-24 12:53:00,68.6,41.3,30.44,South,180,4.3,4.3,37,0.00,,---,0.00,VWS V14.01,2013-04-24 19:53:00,
2013-04-24 12:54:00,68.6,38.4,30.44,South,180,4.3,4.3,33,0.00,,---,0.00,VWS V14.01,2013-04-24 19:54:00,
2013-04-24 12:55:00,68.6,39.1,30.44,South,180,4.3,4.3,34,0.00,,---,0.00,VWS V14.01,2013-04-24 19:55:00,
2013-04-24 12:56:00,68.6,39.9,30.44,South,180,1.6,4.3,35,0.00,,---,0.00,VWS V14.01,2013-04-24 19:56:00,
2013-04-24 12:57:00,68.6,39.9,30.44,SE,135,2.5,2.5,35,0.00,,---,0.00,VWS V14.01,2013-04-24 19:57:00,
2013-04-24 12:58:00,68.6,38.4,30.44,SE,135,2.5,2.5,33,0.00,,---,0.00,VWS V14.01,2013-04-24 19:58:00,
2013-04-24 12:59:00,68.6,39.1,30.44,SE,135,2.5,2.5,34,0.00,,---,0.00,VWS V14.01,2013-04-24 19:59:00,
2013-04-24 13:00:00,68.8,38.5,30.44,SE,135,5.1,5.1,33,0.00,,---,0.00,VWS V14.01,2013-04-24 20:00:00,
2013-04-24 13:01:00,68.6,37.6,30.44,SE,135,5.1,5.1,32,0.00,,---,0.00,VWS V14.01,2013-04-24 20:01:00,
2013-04-24 13:02:00,68.4,36.6,30.44,South,180,1.8,5.1,31,0.00,,---,0.00,VWS V14.01,2013-04-24 20:02:00,
2013-04-24 13:03:00,68.0,37.1,30.44,South,180,1.8,1.8,32,0.00,,---,0.00,VWS V14.01,2013-04-24 20:03:00,
2013-04-24 13:04:00,68.0,37.1,30.44,South,180,1.8,1.8,32,0.00,,---,0.00,VWS V14.01,2013-04-24 20:04:00,
2013-04-24 13:05:00,68.0,36.3,30.44,South,180,1.8,1.8,31,0.00,,---,0.00,VWS V14.01,2013-04-24 20:05:00,
2013-04-24 13:06:00,68.0,37.8,30.44,South,180,1.8,1.8,33,0.00,,---,0.00,VWS V14.01,2013-04-24 20:06:00,
2013-04-24 13:07:00,68.0,37.8,30.44,South,180,1.8,1.8,33,0.00,,---,0.00,VWS V14.01,2013-04-24 20:07:00,
2013-04-24 13:08:00,68.2,38.8,30.43,South,180,3.4,3.4,34,0.00,,---,0.00,VWS V14.01,2013-04-24 20:08:00,
2013-04-24 13:09:00,68.2,38.8,30.43,South,180,3.4,3.4,34,0.00,,---,0.00,VWS V14.01,2013-04-24 20:09:00,
2013-04-24 13:10:00,68.4,37.4,30.44,South,180,3.4,3.4,32,0.00,,---,0.00,VWS V14.01,2013-04-24 20:10:00,
2013-04-24 13:11:00,68.4,36.6,30.43,South,180,4.9,4.9,31,0.00,,---,0.00,VWS V14.01,2013-04-24 20:11:00,
2013-04-24 13:12:00,68.4,37.4,30.43,South,180,4.9,4.9,32,0.00,,---,0.00,VWS V14.01,2013-04-24 20:12:00,
2013-04-24 13:13:00,68.4,38.2,30.43,South,180,1.1,1.1,33,0.00,,---,0.00,VWS V14.01,2013-04-24 20:13:00,
2013-04-24 13:14:00,68.4,38.2,30.43,South,180,1.1,1.1,33,0.00,,---,0.00,VWS V14.01,2013-04-24 20:14:00,
2013-04-24 13:15:00,68.4,37.4,30.44,South,180,1.1,1.1,32,0.00,,---,0.00,VWS V14.01,2013-04-24 20:15:00,
2013-04-24 20:08:00,59.2,39.0,30.31,SW,225,0.0,0.0,47,0.00,,---,0.00,VWS V14.01,2013-04-25 03:08:00,
2013-04-24 20:13:00,57.6,38.6,30.30,SSW,202,0.0,0.0,49,0.00,,---,0.00,VWS V14.01,2013-04-25 03:13:00,
2013-04-24 20:18:00,57.2,38.8,30.30,SSW,202,0.0,0.0,50,0.00,,---,0.00,VWS V14.01,2013-04-25 03:18:00,
2013-04-24 20:23:00,56.9,39.0,30.30,South,180,0.0,0.0,51,0.00,,---,0.00,VWS V14.01,2013-04-25 03:23:00,
2013-04-24 20:28:00,56.5,39.1,30.31,South,180,0.0,0.0,52,0.00,,---,0.00,VWS V14.01,2013-04-25 03:28:00,
2013-04-24 20:33:00,56.2,39.3,30.30,South,180,0.0,0.0,53,0.00,,---,0.00,VWS V14.01,2013-04-25 03:33:00,
2013-04-24 20:38:00,55.8,38.9,30.30,South,180,1.1,1.1,53,0.00,,---,0.00,VWS V14.01,2013-04-25 03:38:00,
2013-04-24 20:43:00,55.3,39.0,30.30,South,180,0.4,0.4,54,0.00,,---,0.00,VWS V14.01,2013-04-25 03:43:00,
2013-04-24 20:48:00,54.9,39.0,30.30,South,180,1.1,1.1,55,0.00,,---,0.00,VWS V14.01,2013-04-25 03:48:00,
2013-04-24 20:53:00,54.7,38.9,30.30,South,180,0.0,0.0,55,0.00,,---,0.00,VWS V14.01,2013-04-25 03:53:00,
2013-04-24 20:58:00,54.5,38.7,30.30,South,180,0.9,0.9,55,0.00,,---,0.00,VWS V14.01,2013-04-25 03:58:00,
2013-04-24 21:01:00,54.4,39.0,30.31,South,180,1.8,1.8,56,0.00,,---,0.00,VWS V14.01,2013-04-25 04:01:00,
2013-04-24 21:06:00,54.0,38.7,30.31,South,180,0.4,0.4,56,0.00,,---,0.00,VWS V14.01,2013-04-25 04:06:00,
2013-04-24 21:11:00,53.6,38.8,30.31,South,180,0.4,0.4,57,0.00,,---,0.00,VWS V14.01,2013-04-25 04:11:00,
2013-04-24 21:16:00,53.1,38.3,30.30,South,180,1.1,1.1,57,0.00,,---,0.00,VWS V14.01,2013-04-25 04:16:00,
2013-04-24 21:21:00,52.7,38.3,30.30,South,180,2.0,2.0,58,0.00,,---,0.00,VWS V14.01,2013-04-25 04:21:00,
2013-04-24 21:26:00,52.4,38.1,30.30,South,180,1.1,1.1,58,0.00,,---,0.00,VWS V14.01,2013-04-25 04:26:00,
2013-04-24 21:31:00,52.2,38.3,30.30,South,180,1.1,1.1,59,0.00,,---,0.00,VWS V14.01,2013-04-25 04:31:00,
2013-04-24 21:36:00,51.8,38.4,30.30,South,180,1.1,1.1,60,0.00,,---,0.00,VWS V14.01,2013-04-25 04:36:00,
2013-04-24 21:41:00,51.5,38.1,30.30,South,180,1.1,1.6,60,0.00,,---,0.00,VWS V14.01,2013-04-25 04:41:00,
2013-04-24 21:46:00,51.1,38.1,30.30,South,180,1.1,1.1,61,0.00,,---,0.00,VWS V14.01,2013-04-25 04:46:00,
2013-04-24 21:51:00,50.8,37.8,30.30,South,180,1.3,1.3,61,0.00,,---,0.00,VWS V14.01,2013-04-25 04:51:00,
2013-04-24 21:56:00,50.4,37.9,30.30,South,180,1.6,1.6,62,0.00,,---,0.00,VWS V14.01,2013-04-25 04:56:00,
2013-04-24 22:01:00,50.2,37.7,30.30,South,180,0.7,0.9,62,0.00,,---,0.00,VWS V14.01,2013-04-25 05:01:00,
2013-04-24 22:06:00,50.0,37.9,30.30,South,180,0.4,0.4,63,0.00,,---,0.00,VWS V14.01,2013-04-25 05:06:00,
2013-04-24 22:11:00,49.9,37.8,30.30,South,180,0.2,0.2,63,0.00,,---,0.00,VWS V14.01,2013-04-25 05:11:00,
2013-04-24 22:16:00,49.7,38.0,30.31,South,180,0.4,0.9,64,0.00,,---,0.00,VWS V14.01,2013-04-25 05:16:00,
2013-04-24 22:21:00,49.5,37.8,30.31,South,180,0.2,0.2,64,0.00,,---,0.00,VWS V14.01,2013-04-25 05:21:00,
2013-04-24 22:26:00,49.1,37.5,30.31,South,180,1.6,1.8,64,0.00,,---,0.00,VWS V14.01,2013-04-25 05:26:00,
2013-04-24 22:31:00,49.0,37.4,30.31,South,180,0.4,0.4,64,0.00,,---,0.00,VWS V14.01,2013-04-25 05:31:00,
2013-04-24 22:36:00,48.6,37.0,30.31,South,180,0.4,0.4,64,0.00,,---,0.00,VWS V14.01,2013-04-25 05:36:00,
2013-04-24 22:41:00,48.4,36.8,30.31,South,180,0.9,0.9,64,0.00,,---,0.00,VWS V14.01,2013-04-25 05:41:00,
2013-04-24 22:46:00,48.2,37.0,30.31,South,180,0.7,0.9,65,0.00,,---,0.00,VWS V14.01,2013-04-25 05:46:00,
2013-04-24 22:51:00,48.1,36.9,30.30,South,180,0.7,0.9,65,0.00,,---,0.00,VWS V14.01,2013-04-25 05:51:00,
2013-04-24 22:56:00,47.9,37.1,30.30,South,180,1.8,1.8,66,0.00,,---,0.00,VWS V14.01,2013-04-25 05:56:00,
2013-04-24 23:01:00,47.5,36.7,30.30,South,180,1.8,1.8,66,0.00,,---,0.00,VWS V14.01,2013-04-25 06:01:00,
2013-04-24 23:06:00,47.3,36.9,30.30,South,180,0.7,0.7,67,0.00,,---,0.00,VWS V14.01,2013-04-25 06:06:00,
2013-04-24 23:11:00,47.3,36.9,30.30,South,180,1.1,1.1,67,0.00,,---,0.00,VWS V14.01,2013-04-25 06:11:00,
2013-04-24 23:16:00,47.3,36.9,30.30,South,180,0.0,0.0,67,0.00,,---,0.00,VWS V14.01,2013-04-25 06:16:00,
2013-04-24 23:21:00,47.2,37.2,30.30,South,180,1.1,1.1,68,0.00,,---,0.00,VWS V14.01,2013-04-25 06:21:00,
2013-04-24 23:26:00,47.2,37.2,30.29,South,180,1.6,1.6,68,0.00,,---,0.00,VWS V14.01,2013-04-25 06:26:00,
2013-04-24 23:31:00,47.0,37.0,30.29,South,180,1.1,1.1,68,0.00,,---,0.00,VWS V14.01,2013-04-25 06:31:00,
2013-04-24 23:36:00,46.8,36.8,30.29,South,180,0.4,0.9,68,0.00,,---,0.00,VWS V14.01,2013-04-25 06:36:00,
2013-04-24 23:41:00,46.6,36.6,30.29,South,180,0.7,0.9,68,0.00,,---,0.00,VWS V14.01,2013-04-25 06:41:00,
2013-04-24 23:46:00,46.4,36.4,30.30,South,180,0.4,0.4,68,0.00,,---,0.00,VWS V14.01,2013-04-25 06:46:00,
2013-04-24 23:51:00,46.3,36.7,30.29,South,180,0.4,0.4,69,0.00,,---,0.00,VWS V14.01,2013-04-25 06:51:00,
2013-04-24 23:56:00,46.1,36.5,30.29,South,180,1.3,1.3,69,0.00,,---,0.00,VWS V14.01,2013-04-25 06:56:00,